M I D A S
Marine Information and Data Acquisition System
Tripno 1477 of the Zeeleeuw from 2008-02-13 08:18:54 to 2008-02-13 15:43:21
Back to CruiseResearch ActivitiesStationsMapUnderway DataData graphs

EquipmentUnitsComment
TimeDGPSUTC
LatitudeDGPSDM.mWGS84
LongitudeDGPSDM.mWGS84
TemperatureSBE03/SBE38deg celciusITS90
ConductivitySBE21S/mITS90
SalinitySBE21 Practical Salinity Units
ChlorophylAChelsea fluorimeterg/lCalibrated in Aceton
Missing or incorrect values are displayed as -999
Sea surface data collected by the RV Zeeleeuw from 2008-02-13 08:19:25 to 2008-02-13 15:53:38
                                                                                    Next 1000 lines
Time Latitude Longitude Temperature Conductivity Salinity ChlorophylA
2008-02-13 08:19:35 51°13.664 2°55.953 -999 0.027183 0.136606 -1.801521
2008-02-13 08:19:40 51°13.664 2°55.953 -999 0.02708 0.136092 -1.801521
2008-02-13 08:19:45 51°13.664 2°55.953 -999 0.027183 0.136606 -1.801521
2008-02-13 08:19:50 51°13.664 2°55.954 -999 0.027183 0.136606 -1.801521
2008-02-13 08:19:55 51°13.663 2°55.954 -999 0.027183 0.136608 -1.801521
2008-02-13 08:20:00 51°13.663 2°55.954 -999 0.027183 0.136611 -1.766697
2008-02-13 08:20:05 51°13.664 2°55.954 -999 0.027183 0.136613 -1.801521
2008-02-13 08:20:10 51°13.664 2°55.954 -999 0.027183 0.136613 -1.801521
2008-02-13 08:20:15 51°13.664 2°55.955 -999 0.027183 0.136615 -1.801521
2008-02-13 08:20:20 51°13.664 2°55.955 -999 0.027183 0.136615 -1.801521
2008-02-13 08:20:25 51°13.664 2°55.955 -999 0.027183 0.136618 -1.801521
2008-02-13 08:20:30 51°13.664 2°55.955 -999 0.027183 0.136618 -1.801521
2008-02-13 08:20:35 51°13.664 2°55.955 -999 0.027183 0.136618 -1.801521
2008-02-13 08:20:40 51°13.664 2°55.955 -999 0.027183 0.13662 -1.801521
2008-02-13 08:20:45 51°13.663 2°55.955 -999 0.027183 0.136622 -1.801521
2008-02-13 08:20:50 51°13.663 2°55.955 -999 0.027183 0.136622 -1.801521
2008-02-13 08:20:55 51°13.663 2°55.955 -999 0.02708 0.13611 -1.801521
2008-02-13 08:21:00 51°13.663 2°55.955 -999 0.027183 0.136624 -1.801521
2008-02-13 08:21:05 51°13.663 2°55.955 -999 0.027183 0.136624 -1.801521
2008-02-13 08:21:10 51°13.663 2°55.955 -999 0.02708 0.136115 -1.801521
2008-02-13 08:21:15 51°13.663 2°55.955 -999 0.02708 0.136115 -1.801521
2008-02-13 08:21:20 51°13.663 2°55.955 -999 0.02708 0.136115 -1.801521
2008-02-13 08:21:25 51°13.663 2°55.954 -999 0.02708 0.136115 -1.766697
2008-02-13 08:21:30 51°13.663 2°55.954 -999 0.02708 0.136117 -1.801521
2008-02-13 08:21:35 51°13.662 2°55.954 -999 0.02708 0.136119 -1.801521
2008-02-13 08:21:40 51°13.662 2°55.954 -999 0.02708 0.136121 -1.766697
2008-02-13 08:21:45 51°13.662 2°55.954 -999 0.027183 0.136633 -1.801521
2008-02-13 08:21:50 51°13.662 2°55.953 -999 0.027183 0.136633 -1.801521
2008-02-13 08:21:55 51°13.663 2°55.952 -999 0.027183 0.136633 -1.801521
2008-02-13 08:22:00 51°13.663 2°55.951 -999 0.027183 0.136633 -1.801521
2008-02-13 08:22:05 51°13.664 2°55.948 -999 0.027183 0.136633 -1.801521
2008-02-13 08:22:10 51°13.665 2°55.945 -999 0.027183 0.136636 -1.801521
2008-02-13 08:22:15 51°13.666 2°55.941 -999 0.027183 0.136636 -1.801521
2008-02-13 08:22:20 51°13.667 2°55.935 -999 0.027183 0.136636 -1.801521
2008-02-13 08:22:25 51°13.668 2°55.93 -999 0.027183 0.136638 -1.801521
2008-02-13 08:22:30 51°13.67 2°55.923 -999 0.027183 0.13664 -1.766697
2008-02-13 08:22:35 51°13.672 2°55.916 -999 0.027183 0.13664 -1.801521
2008-02-13 08:22:40 51°13.674 2°55.909 -999 0.027183 0.136642 -1.801521
2008-02-13 08:22:45 51°13.675 2°55.901 -999 0.027286 0.137155 -1.801521
2008-02-13 08:22:50 51°13.677 2°55.893 -999 0.027286 0.137155 -1.801521
2008-02-13 08:22:55 51°13.679 2°55.884 -999 0.027286 0.137155 -1.801521
2008-02-13 08:23:00 51°13.681 2°55.876 -999 0.027286 0.137157 -1.801521
2008-02-13 08:23:05 51°13.683 2°55.867 -999 0.027389 0.137669 -1.801521
2008-02-13 08:23:10 51°13.686 2°55.858 -999 0.027389 0.137671 -1.766697
2008-02-13 08:23:15 51°13.688 2°55.848 -999 0.027389 0.137671 -1.801521
2008-02-13 08:23:20 51°13.691 2°55.839 -999 0.027389 0.137671 -1.801521
2008-02-13 08:23:25 51°13.694 2°55.829 -999 0.027286 0.137161 -1.766697
2008-02-13 08:23:30 51°13.698 2°55.819 -999 0.027286 0.137164 -1.801521
2008-02-13 08:23:35 51°13.701 2°55.809 -999 0.027286 0.137166 -1.801521
2008-02-13 08:23:40 51°13.705 2°55.799 -999 0.027286 0.137168 -1.801521
2008-02-13 08:23:45 51°13.709 2°55.789 -999 0.027286 0.13717 -1.801521
2008-02-13 08:23:50 51°13.713 2°55.779 -999 0.027286 0.13717 -1.801521
2008-02-13 08:23:55 51°13.718 2°55.769 -999 0.027286 0.137173 -1.801521
2008-02-13 08:24:00 51°13.723 2°55.759 -999 0.027286 0.137175 -1.801521
2008-02-13 08:24:05 51°13.728 2°55.75 -999 0.027286 0.137175 -1.801521
2008-02-13 08:24:10 51°13.733 2°55.741 -999 0.027286 0.137177 -1.801521
2008-02-13 08:24:15 51°13.739 2°55.732 -999 0.027286 0.13718 -1.801521
2008-02-13 08:24:20 51°13.745 2°55.724 -999 0.027286 0.13718 -1.801521
2008-02-13 08:24:25 51°13.75 2°55.717 -999 0.027286 0.13718 -1.801521
2008-02-13 08:24:30 51°13.757 2°55.71 -999 0.027389 0.137694 -1.801521
2008-02-13 08:24:35 51°13.763 2°55.703 -999 0.027389 0.137696 -1.801521
2008-02-13 08:24:40 51°13.769 2°55.697 -999 0.027389 0.137699 -1.801521
2008-02-13 08:24:45 51°13.776 2°55.691 -999 0.027389 0.137701 -1.801521
2008-02-13 08:24:50 51°13.782 2°55.685 -999 0.027389 0.137701 -1.801521
2008-02-13 08:24:55 51°13.789 2°55.679 -999 0.027389 0.137706 -1.801521
2008-02-13 08:25:00 51°13.796 2°55.674 -999 0.027286 0.137193 -1.766697
2008-02-13 08:25:05 51°13.803 2°55.668 -999 0.027389 0.137708 -1.801521
2008-02-13 08:25:10 51°13.811 2°55.662 -999 0.027492 0.13822 -1.801521
2008-02-13 08:25:15 51°13.818 2°55.657 -999 0.027492 0.138223 -1.801521
2008-02-13 08:25:20 51°13.825 2°55.653 -999 0.027492 0.138223 -1.801521
2008-02-13 08:25:25 51°13.832 2°55.648 -999 0.027492 0.138223 -1.801521
2008-02-13 08:25:30 51°13.839 2°55.645 -999 0.027492 0.13822 -1.801521
2008-02-13 08:25:35 51°13.847 2°55.642 -999 0.027492 0.13822 -1.801521
2008-02-13 08:25:40 51°13.854 2°55.639 -999 0.027492 0.138223 -1.801521
2008-02-13 08:25:45 51°13.861 2°55.637 -999 0.027492 0.138223 -1.801521
2008-02-13 08:25:50 51°13.869 2°55.636 -999 0.027492 0.138223 -1.801521
2008-02-13 08:25:55 51°13.876 2°55.635 -999 0.027492 0.138227 -1.766697
2008-02-13 08:26:00 51°13.884 2°55.635 -999 0.027595 0.13874 -1.801521
2008-02-13 08:26:05 51°13.891 2°55.636 -999 0.027595 0.138742 -1.801521
2008-02-13 08:26:10 51°13.898 2°55.637 -999 0.027492 0.138232 -1.801521
2008-02-13 08:26:15 51°13.905 2°55.638 -999 0.027389 0.137722 -1.801521
2008-02-13 08:26:20 51°13.911 2°55.64 -999 0.027389 0.137722 -1.801521
2008-02-13 08:26:25 51°13.916 2°55.642 -999 0.085944 0.442 -1.766697
2008-02-13 08:26:30 51°13.922 2°55.644 -999 0.067214 0.344505 -1.662225
2008-02-13 08:26:35 51°13.927 2°55.647 -999 3.568127 23.771124 -0.269263
2008-02-13 08:26:40 51°13.932 2°55.649 -999 4.425305 31.426825 1.332643
2008-02-13 08:26:45 51°13.936 2°55.652 -999 4.428974 33.407082 1.402292
2008-02-13 08:26:50 51°13.94 2°55.654 -999 4.428974 33.407082 1.402292
2008-02-13 08:26:55 51°13.944 2°55.657 -999 4.093519 32.397967 1.889828
2008-02-13 08:27:00 51°13.948 2°55.659 -999 3.808983 31.04988 3.456911
2008-02-13 08:27:05 51°13.95 2°55.661 -999 3.598183 30.259962 3.596207
2008-02-13 08:27:10 51°13.952 2°55.662 -999 3.470652 29.973092 3.491735
2008-02-13 08:27:15 51°13.954 2°55.664 -999 3.362414 29.438567 3.422087
2008-02-13 08:27:20 51°13.955 2°55.665 -999 3.362414 29.438567 3.422087
2008-02-13 08:27:25 51°13.956 2°55.667 -999 3.29531 29.204437 3.456911
2008-02-13 08:27:30 51°13.957 2°55.667 -999 3.245401 28.979371 3.491735
2008-02-13 08:27:35 51°13.958 2°55.668 -999 3.206472 28.796222 3.526559
2008-02-13 08:27:40 51°13.959 2°55.668 -999 3.181832 28.681004 3.561383
2008-02-13 08:27:45 51°13.959 2°55.666 -999 3.15709 28.547739 3.631031
2008-02-13 08:27:50 51°13.959 2°55.663 -999 3.15709 28.547739 3.631031
2008-02-13 08:27:55 51°13.959 2°55.659 -999 3.150775 28.564353 3.631031
2008-02-13 08:28:00 51°13.959 2°55.654 -999 3.13297 28.467193 3.700679
2008-02-13 08:28:05 51°13.96 2°55.648 -999 3.133282 28.530986 3.665855
2008-02-13 08:28:10 51°13.962 2°55.641 -999 3.129762 28.532199 3.700679
2008-02-13 08:28:15 51°13.963 2°55.634 -999 3.116512 28.431375 3.631031
2008-02-13 08:28:20 51°13.966 2°55.626 -999 3.116512 28.431375 3.631031
2008-02-13 08:28:25 51°13.969 2°55.617 -999 3.067654 27.954594 3.631031
2008-02-13 08:28:30 51°13.973 2°55.608 -999 3.114856 28.434926 3.631031
2008-02-13 08:28:35 51°13.977 2°55.599 -999 3.109991 28.392068 3.631031
2008-02-13 08:28:40 51°13.981 2°55.59 -999 3.103056 28.355531 3.631031
2008-02-13 08:28:45 51°13.986 2°55.581 -999 3.121379 28.590873 3.805151
2008-02-13 08:28:50 51°13.991 2°55.572 -999 3.121379 28.590873 3.805151
2008-02-13 08:28:55 51°13.996 2°55.563 -999 3.135148 28.796059 3.839975
2008-02-13 08:29:00 51°14.001 2°55.554 -999 3.147676 28.987237 3.805151
2008-02-13 08:29:05 51°14.006 2°55.545 -999 3.145399 29.00974 3.805151
2008-02-13 08:29:10 51°14.012 2°55.537 -999 3.140326 29.005381 3.839975
2008-02-13 08:29:15 51°14.017 2°55.529 -999 3.13453 28.981538 3.909623
2008-02-13 08:29:20 51°14.022 2°55.521 -999 3.13453 28.981538 3.909623
2008-02-13 08:29:25 51°14.028 2°55.514 -999 3.137325 29.05286 3.979271
2008-02-13 08:29:30 51°14.034 2°55.507 -999 3.134841 29.058123 3.979271
2008-02-13 08:29:35 51°14.039 2°55.5 -999 3.131632 29.044636 4.04892
2008-02-13 08:29:40 51°14.045 2°55.494 -999 3.128734 29.030277 4.014096
2008-02-13 08:29:45 51°14.05 2°55.488 -999 3.126146 29.020713 4.014096
2008-02-13 08:29:50 51°14.056 2°55.482 -999 3.126146 29.020713 4.014096
2008-02-13 08:29:55 51°14.061 2°55.477 -999 3.126353 29.038223 4.014096
2008-02-13 08:30:00 51°14.067 2°55.471 -999 3.121488 29.00364 4.014096
2008-02-13 08:30:05 51°14.072 2°55.466 -999 3.124697 29.052016 3.979271
2008-02-13 08:30:10 51°14.078 2°55.461 -999 3.117554 28.991561 3.944447
2008-02-13 08:30:15 51°14.083 2°55.456 -999 3.099542 28.823381 3.874799
2008-02-13 08:30:20 51°14.089 2°55.451 -999 3.099542 28.823381 3.874799
2008-02-13 08:30:25 51°14.094 2°55.446 -999 3.054412 28.374301 3.874799
2008-02-13 08:30:30 51°14.1 2°55.442 -999 3.064659 28.502596 3.839975
2008-02-13 08:30:35 51°14.105 2°55.437 -999 3.052135 28.388253 3.874799
2008-02-13 08:30:40 51°14.11 2°55.433 -999 3.050583 28.389 3.839975
2008-02-13 08:30:45 51°14.116 2°55.428 -999 3.042199 28.309183 3.874799
2008-02-13 08:30:50 51°14.121 2°55.424 -999 3.042199 28.309183 3.874799
2008-02-13 08:30:55 51°14.126 2°55.419 -999 3.044683 28.342659 3.805151
2008-02-13 08:31:00 51°14.131 2°55.415 -999 3.035679 28.261188 3.839975
2008-02-13 08:31:05 51°14.136 2°55.41 -999 3.02388 28.157285 3.839975
2008-02-13 08:31:10 51°14.142 2°55.405 -999 3.033299 28.262081 3.839975
2008-02-13 08:31:15 51°14.147 2°55.4 -999 3.032057 28.256441 3.805151
2008-02-13 08:31:20 51°14.153 2°55.395 -999 3.032057 28.256441 3.805151
2008-02-13 08:31:25 51°14.158 2°55.39 -999 3.042924 28.375488 3.839975
2008-02-13 08:31:30 51°14.163 2°55.384 -999 3.041061 28.36108 3.874799
2008-02-13 08:31:35 51°14.169 2°55.379 -999 3.054207 28.501325 3.839975
2008-02-13 08:31:40 51°14.174 2°55.373 -999 3.053068 28.490389 3.805151
2008-02-13 08:31:45 51°14.179 2°55.367 -999 3.053275 28.494926 3.839975
2008-02-13 08:31:50 51°14.184 2°55.36 -999 3.053275 28.494926 3.839975
2008-02-13 08:31:55 51°14.19 2°55.354 -999 3.051723 28.485325 3.909623
2008-02-13 08:32:00 51°14.195 2°55.347 -999 3.053172 28.504273 3.874799
2008-02-13 08:32:05 51°14.2 2°55.341 -999 3.074598 28.726157 3.839975
2008-02-13 08:32:10 51°14.205 2°55.334 -999 3.06818 28.663944 3.874799
2008-02-13 08:32:15 51°14.21 2°55.326 -999 3.076461 28.753477 3.839975
2008-02-13 08:32:20 51°14.215 2°55.319 -999 3.076461 28.753477 3.839975
2008-02-13 08:32:25 51°14.22 2°55.312 -999 3.080602 28.801912 3.805151
2008-02-13 08:32:30 51°14.226 2°55.304 -999 3.086398 28.861807 3.805151
2008-02-13 08:32:35 51°14.231 2°55.296 -999 3.085053 28.851148 3.805151
2008-02-13 08:32:40 51°14.236 2°55.288 -999 3.090125 28.90764 3.805151
2008-02-13 08:32:45 51°14.242 2°55.28 -999 3.091471 28.923181 3.770327
2008-02-13 08:32:50 51°14.248 2°55.271 -999 3.091471 28.923181 3.770327
2008-02-13 08:32:55 51°14.254 2°55.261 -999 3.087434 28.884694 3.735503
2008-02-13 08:33:00 51°14.26 2°55.251 -999 3.093644 28.951362 3.735503
2008-02-13 08:33:05 51°14.267 2°55.241 -999 3.085156 28.866025 3.735503
2008-02-13 08:33:10 51°14.273 2°55.23 -999 3.084535 28.861228 3.700679
2008-02-13 08:33:15 51°14.279 2°55.219 -999 3.093023 28.951458 3.735503
2008-02-13 08:33:20 51°14.285 2°55.207 -999 3.093023 28.951458 3.735503
2008-02-13 08:33:25 51°14.292 2°55.195 -999 3.094887 28.973997 3.770327
2008-02-13 08:33:30 51°14.298 2°55.183 -999 3.093334 28.960378 3.770327
2008-02-13 08:33:35 51°14.304 2°55.17 -999 3.101201 29.04016 3.839975
2008-02-13 08:33:40 51°14.31 2°55.157 -999 3.101201 29.040978 3.874799
2008-02-13 08:33:45 51°14.316 2°55.144 -999 3.105342 29.087117 3.909623
2008-02-13 08:33:50 51°14.322 2°55.131 -999 3.105342 29.087117 3.909623
2008-02-13 08:33:55 51°14.328 2°55.118 -999 3.110104 29.138888 3.909623
2008-02-13 08:34:00 51°14.333 2°55.104 -999 3.11559 29.197364 3.909623
2008-02-13 08:34:05 51°14.339 2°55.09 -999 3.115487 29.194646 3.874799
2008-02-13 08:34:10 51°14.345 2°55.076 -999 3.122423 29.266511 3.874799
2008-02-13 08:34:15 51°14.351 2°55.061 -999 3.124389 29.28937 3.805151
2008-02-13 08:34:20 51°14.357 2°55.045 -999 3.124389 29.28937 3.805151
2008-02-13 08:34:25 51°14.362 2°55.028 -999 3.121387 29.25908 3.770327
2008-02-13 08:34:30 51°14.368 2°55.011 -999 3.116833 29.214349 3.770327
2008-02-13 08:34:35 51°14.375 2°54.994 -999 3.118385 29.233734 3.735503
2008-02-13 08:34:40 51°14.381 2°54.977 -999 3.11735 29.225476 3.665855
2008-02-13 08:34:45 51°14.388 2°54.959 -999 3.11735 29.224652 3.700679
2008-02-13 08:34:50 51°14.395 2°54.941 -999 3.11735 29.224652 3.700679
2008-02-13 08:34:55 51°14.403 2°54.922 -999 3.11735 29.223829 3.735503
2008-02-13 08:35:00 51°14.41 2°54.903 -999 3.109897 29.146595 3.735503
2008-02-13 08:35:05 51°14.419 2°54.884 -999 3.127599 29.328418 3.770327
2008-02-13 08:35:10 51°14.428 2°54.866 -999 3.135363 29.408935 3.770327
2008-02-13 08:35:15 51°14.437 2°54.847 -999 3.136502 29.419918 3.874799
2008-02-13 08:35:20 51°14.447 2°54.829 -999 3.136502 29.419918 3.874799
2008-02-13 08:35:25 51°14.458 2°54.81 -999 3.146233 29.520878 4.014096
2008-02-13 08:35:30 51°14.469 2°54.792 -999 3.145198 29.50681 4.118568
2008-02-13 08:35:35 51°14.48 2°54.774 -999 3.153376 29.585014 4.22304
2008-02-13 08:35:40 51°14.492 2°54.756 -999 3.177188 29.826364 4.327512
2008-02-13 08:35:45 51°14.505 2°54.739 -999 3.18868 29.942385 4.431984
2008-02-13 08:35:50 51°14.518 2°54.723 -999 3.18868 29.942385 4.431984
2008-02-13 08:35:55 51°14.532 2°54.709 -999 3.197895 30.030541 4.501632
2008-02-13 08:36:00 51°14.547 2°54.695 -999 3.205453 30.101476 4.536456
2008-02-13 08:36:05 51°14.561 2°54.681 -999 3.21591 30.20424 4.57128
2008-02-13 08:36:10 51°14.576 2°54.667 -999 3.23372 30.383482 4.606104
2008-02-13 08:36:15 51°14.591 2°54.653 -999 3.242728 30.469498 4.57128
2008-02-13 08:36:20 51°14.606 2°54.64 -999 3.242728 30.469498 4.57128
2008-02-13 08:36:25 51°14.621 2°54.627 -999 3.241486 30.446291 4.606104
2008-02-13 08:36:30 51°14.636 2°54.613 -999 3.255464 30.577963 4.675753
2008-02-13 08:36:35 51°14.652 2°54.6 -999 3.26934 30.70681 4.606104
2008-02-13 08:36:40 51°14.667 2°54.587 -999 3.282388 30.823539 4.640929
2008-02-13 08:36:45 51°14.682 2°54.574 -999 3.291086 30.896699 4.640929
2008-02-13 08:36:50 51°14.697 2°54.56 -999 3.291086 30.896699 4.640929
2008-02-13 08:36:55 51°14.713 2°54.547 -999 3.302892 31.000386 4.640929
2008-02-13 08:37:00 51°14.728 2°54.534 -999 3.313662 31.099346 4.675753
2008-02-13 08:37:05 51°14.744 2°54.52 -999 3.323397 31.191004 4.640929
2008-02-13 08:37:10 51°14.759 2°54.507 -999 3.331578 31.266489 4.57128
2008-02-13 08:37:15 51°14.775 2°54.494 -999 3.334271 31.283108 4.501632
2008-02-13 08:37:20 51°14.79 2°54.481 -999 3.334271 31.283108 4.501632
2008-02-13 08:37:25 51°14.805 2°54.468 -999 3.343281 31.367176 4.536456
2008-02-13 08:37:30 51°14.821 2°54.455 -999 3.348045 31.4097 4.536456
2008-02-13 08:37:35 51°14.837 2°54.442 -999 3.352913 31.453293 4.466808
2008-02-13 08:37:40 51°14.852 2°54.429 -999 3.356124 31.477881 4.431984
2008-02-13 08:37:45 51°14.867 2°54.415 -999 3.360473 31.516952 4.39716
2008-02-13 08:37:50 51°14.883 2°54.402 -999 3.360473 31.516952 4.39716
2008-02-13 08:37:55 51°14.898 2°54.389 -999 3.363995 31.5474 4.292688
2008-02-13 08:38:00 51°14.913 2°54.376 -999 3.369588 31.598501 4.257864
2008-02-13 08:38:05 51°14.929 2°54.363 -999 3.370313 31.598971 4.22304
2008-02-13 08:38:10 51°14.944 2°54.35 -999 3.373006 31.620785 4.04892
2008-02-13 08:38:15 51°14.959 2°54.337 -999 3.369691 31.580147 4.014096
2008-02-13 08:38:20 51°14.974 2°54.324 -999 3.369691 31.580147 4.014096
2008-02-13 08:38:25 51°14.99 2°54.311 -999 3.384917 31.731355 3.979271
2008-02-13 08:38:30 51°15.005 2°54.299 -999 3.385745 31.734651 3.909623
2008-02-13 08:38:35 51°15.02 2°54.285 -999 3.385745 31.731104 3.839975
2008-02-13 08:38:40 51°15.035 2°54.272 -999 3.383467 31.702988 3.874799
2008-02-13 08:38:45 51°15.05 2°54.258 -999 3.383363 31.696599 3.735503
2008-02-13 08:38:50 51°15.065 2°54.244 -999 3.383363 31.696599 3.735503
2008-02-13 08:38:55 51°15.08 2°54.23 -999 3.396103 31.82636 3.700679
2008-02-13 08:39:00 51°15.094 2°54.214 -999 3.393928 31.799307 3.665855
2008-02-13 08:39:05 51°15.109 2°54.2 -999 3.399521 31.852115 3.596207
2008-02-13 08:39:10 51°15.124 2°54.185 -999 3.402836 31.882122 3.491735
2008-02-13 08:39:15 51°15.139 2°54.17 -999 3.406254 31.912313 3.456911
2008-02-13 08:39:20 51°15.153 2°54.154 -999 3.406254 31.912313 3.456911
2008-02-13 08:39:25 51°15.168 2°54.139 -999 3.410086 31.946805 3.526559
2008-02-13 08:39:30 51°15.183 2°54.123 -999 3.406357 31.903594 3.422087
2008-02-13 08:39:35 51°15.197 2°54.107 -999 3.41309 31.970895 3.456911
2008-02-13 08:39:40 51°15.212 2°54.091 -999 3.413815 31.974863 3.422087
2008-02-13 08:39:45 51°15.227 2°54.075 -999 3.41309 31.963761 3.317614
2008-02-13 08:39:50 51°15.241 2°54.06 -999 3.41309 31.963761 3.317614
2008-02-13 08:39:55 51°15.256 2°54.045 -999 3.419202 32.024598 3.352439
2008-02-13 08:40:00 51°15.272 2°54.03 -999 3.413297 31.960565 3.317614
2008-02-13 08:40:05 51°15.286 2°54.015 -999 3.417751 32.003277 3.213142
2008-02-13 08:40:10 51°15.302 2°54.002 -999 3.423448 32.060696 3.178318
2008-02-13 08:40:15 51°15.317 2°53.988 -999 3.422516 32.047433 3.213142
2008-02-13 08:40:20 51°15.333 2°53.974 -999 3.422516 32.047433 3.213142
2008-02-13 08:40:25 51°15.348 2°53.961 -999 3.421687 32.036142 3.178318
2008-02-13 08:40:30 51°15.364 2°53.948 -999 3.42407 32.058216 3.178318
2008-02-13 08:40:35 51°15.379 2°53.934 -999 3.426556 32.08226 3.10867
2008-02-13 08:40:40 51°15.395 2°53.922 -999 3.426038 32.074196 3.10867
2008-02-13 08:40:45 51°15.411 2°53.908 -999 3.427074 32.082276 3.213142
2008-02-13 08:40:50 51°15.426 2°53.895 -999 3.427074 32.082276 3.213142
2008-02-13 08:40:55 51°15.441 2°53.881 -999 3.430389 32.114032 3.10867
2008-02-13 08:41:00 51°15.457 2°53.867 -999 3.429456 32.103451 3.073846
2008-02-13 08:41:05 51°15.472 2°53.853 -999 3.43101 32.1187 3.143494
2008-02-13 08:41:10 51°15.488 2°53.838 -999 3.430699 32.113681 3.143494
2008-02-13 08:41:15 51°15.503 2°53.824 -999 3.431942 32.1257 3.143494
2008-02-13 08:41:20 51°15.518 2°53.809 -999 3.431942 32.1257 3.143494
2008-02-13 08:41:25 51°15.533 2°53.795 -999 3.43101 32.11512 3.143494
2008-02-13 08:41:30 51°15.548 2°53.78 -999 3.435361 32.161218 3.143494
2008-02-13 08:41:35 51°15.564 2°53.766 -999 3.430596 32.11171 3.10867
2008-02-13 08:41:40 51°15.579 2°53.751 -999 3.432875 32.134491 3.247966
2008-02-13 08:41:45 51°15.594 2°53.737 -999 3.433496 32.140053 3.247966
2008-02-13 08:41:50 51°15.61 2°53.723 -999 3.433496 32.140053 3.247966
2008-02-13 08:41:55 51°15.625 2°53.709 -999 3.43246 32.1275 3.213142
2008-02-13 08:42:00 51°15.64 2°53.695 -999 3.434118 32.142928 3.213142
2008-02-13 08:42:05 51°15.656 2°53.681 -999 3.433496 32.134681 3.178318
2008-02-13 08:42:10 51°15.671 2°53.667 -999 3.441265 32.214502 3.247966
2008-02-13 08:42:15 51°15.686 2°53.653 -999 3.432978 32.128405 3.213142
2008-02-13 08:42:20 51°15.702 2°53.639 -999 3.432978 32.128405 3.213142
2008-02-13 08:42:25 51°15.717 2°53.624 -999 3.438054 32.180239 3.247966
2008-02-13 08:42:30 51°15.732 2°53.61 -999 3.440022 32.200688 3.247966
2008-02-13 08:42:35 51°15.747 2°53.596 -999 3.43909 32.191001 3.28279
2008-02-13 08:42:40 51°15.762 2°53.582 -999 3.439504 32.195306 3.28279
2008-02-13 08:42:45 51°15.778 2°53.568 -999 3.441576 32.219526 3.352439
2008-02-13 08:42:50 51°15.793 2°53.554 -999 3.441576 32.219526 3.352439
2008-02-13 08:42:55 51°15.808 2°53.54 -999 3.439504 32.200689 3.317614
2008-02-13 08:43:00 51°15.824 2°53.526 -999 3.436915 32.177365 3.28279
2008-02-13 08:43:05 51°15.839 2°53.513 -999 3.439919 32.211277 3.28279
2008-02-13 08:43:10 51°15.855 2°53.499 -999 3.441162 32.227791 3.247966
2008-02-13 08:43:15 51°15.87 2°53.486 -999 3.437536 32.192795 3.28279
2008-02-13 08:43:20 51°15.886 2°53.472 -999 3.437536 32.192795 3.28279
2008-02-13 08:43:25 51°15.902 2°53.459 -999 3.443545 32.258855 3.28279
2008-02-13 08:43:30 51°15.917 2°53.445 -999 3.439712 32.223493 3.317614
2008-02-13 08:43:35 51°15.932 2°53.431 -999 3.436811 32.19872 3.352439
2008-02-13 08:43:40 51°15.948 2°53.417 -999 3.433289 32.166583 3.387263
2008-02-13 08:43:45 51°15.963 2°53.402 -999 3.432875 32.165862 3.422087
2008-02-13 08:43:50 51°15.978 2°53.388 -999 3.432875 32.165862 3.422087
2008-02-13 08:43:55 51°15.994 2°53.374 -999 3.437744 32.2174 3.317614
2008-02-13 08:44:00 51°16.009 2°53.359 -999 3.436811 32.209499 3.422087
2008-02-13 08:44:05 51°16.025 2°53.346 -999 3.435983 32.206269 3.28279
2008-02-13 08:44:10 51°16.04 2°53.332 -999 3.435776 32.209505 3.247966
2008-02-13 08:44:15 51°16.056 2°53.32 -999 3.433704 32.191542 3.178318
2008-02-13 08:44:20 51°16.072 2°53.307 -999 3.433704 32.191542 3.178318
2008-02-13 08:44:25 51°16.088 2°53.296 -999 3.435051 32.211848 3.073846
2008-02-13 08:44:30 51°16.104 2°53.284 -999 3.430596 32.16998 3.073846
2008-02-13 08:44:35 51°16.12 2°53.273 -999 3.432461 32.195679 2.969374
2008-02-13 08:44:40 51°16.137 2°53.261 -999 3.4307 32.183638 2.969374
2008-02-13 08:44:45 51°16.153 2°53.25 -999 3.429561 32.17447 2.864902
2008-02-13 08:44:50 51°16.169 2°53.239 -999 3.429561 32.17447 2.864902
2008-02-13 08:44:55 51°16.185 2°53.228 -999 3.43215 32.204135 2.864902
2008-02-13 08:45:00 51°16.202 2°53.216 -999 3.430286 32.189213 2.899726
2008-02-13 08:45:05 51°16.218 2°53.205 -999 3.429768 32.188315 2.864902
2008-02-13 08:45:10 51°16.234 2°53.194 -999 3.430182 32.198029 2.795254
2008-02-13 08:45:15 51°16.25 2°53.182 -999 3.426557 32.162957 2.830078
2008-02-13 08:45:20 51°16.266 2°53.171 -999 3.426557 32.162957 2.830078
2008-02-13 08:45:25 51°16.282 2°53.159 -999 3.426143 32.163135 2.795254
2008-02-13 08:45:30 51°16.299 2°53.147 -999 3.426039 32.164753 2.76043
2008-02-13 08:45:35 51°16.314 2°53.135 -999 3.431011 32.219269 2.795254
2008-02-13 08:45:40 51°16.331 2°53.123 -999 3.421067 32.119237 2.795254
2008-02-13 08:45:45 51°16.347 2°53.111 -999 3.427179 32.188324 2.725606
2008-02-13 08:45:50 51°16.362 2°53.099 -999 3.427179 32.188324 2.725606
2008-02-13 08:45:55 51°16.379 2°53.087 -999 3.426039 32.180947 2.655957
2008-02-13 08:46:00 51°16.395 2°53.075 -999 3.425314 32.178788 2.621133
2008-02-13 08:46:05 51°16.411 2°53.064 -999 3.424693 32.178609 2.621133
2008-02-13 08:46:10 51°16.427 2°53.051 -999 3.424382 32.180772 2.551485
2008-02-13 08:46:15 51°16.443 2°53.039 -999 3.425314 32.196802 2.447013
2008-02-13 08:46:20 51°16.459 2°53.027 -999 3.425314 32.196802 2.447013
2008-02-13 08:46:25 51°16.475 2°53.016 -999 3.423243 32.180595 2.412189
2008-02-13 08:46:30 51°16.491 2°53.004 -999 3.422621 32.179517 2.307717
2008-02-13 08:46:35 51°16.507 2°52.992 -999 3.42459 32.207269 2.272893
2008-02-13 08:46:40 51°16.523 2°52.981 -999 3.426143 32.230709 2.133597
2008-02-13 08:46:45 51°16.539 2°52.97 -999 3.422518 32.199173 2.098773
2008-02-13 08:46:50 51°16.556 2°52.959 -999 3.422518 32.199173 2.098773
2008-02-13 08:46:55 51°16.572 2°52.948 -999 3.424486 32.226044 2.029124
2008-02-13 08:47:00 51°16.588 2°52.937 -999 3.426454 32.252024 1.959476
2008-02-13 08:47:05 51°16.604 2°52.925 -999 3.424383 32.235803 1.924652
2008-02-13 08:47:10 51°16.62 2°52.914 -999 3.426351 32.261794 1.82018
2008-02-13 08:47:15 51°16.636 2°52.902 -999 3.422208 32.220304 1.855004
2008-02-13 08:47:20 51°16.652 2°52.89 -999 3.422208 32.220304 1.855004
2008-02-13 08:47:25 51°16.668 2°52.878 -999 3.428112 32.284724 1.750532
2008-02-13 08:47:30 51°16.684 2°52.866 -999 3.427491 32.282754 1.750532
2008-02-13 08:47:35 51°16.7 2°52.854 -999 3.425005 32.258576 1.750532
2008-02-13 08:47:40 51°16.716 2°52.842 -999 3.429252 32.306601 1.680884
2008-02-13 08:47:45 51°16.732 2°52.831 -999 3.429666 32.310934 1.715708
2008-02-13 08:47:50 51°16.748 2°52.82 -999 3.429666 32.310934 1.715708
2008-02-13 08:47:55 51°16.764 2°52.809 -999 3.430702 32.319953 1.715708
2008-02-13 08:48:00 51°16.78 2°52.799 -999 3.432048 32.332221 1.785356
2008-02-13 08:48:05 51°16.796 2°52.788 -999 3.422726 32.232947 1.715708
2008-02-13 08:48:10 51°16.812 2°52.777 -999 3.431841 32.326427 1.750532
2008-02-13 08:48:15 51°16.829 2°52.766 -999 3.43267 32.332371 1.82018
2008-02-13 08:48:20 51°16.845 2°52.756 -999 3.43267 32.332371 1.82018
2008-02-13 08:48:25 51°16.861 2°52.745 -999 3.426144 32.259629 1.82018
2008-02-13 08:48:30 51°16.877 2°52.734 -999 3.426351 32.25908 1.924652
2008-02-13 08:48:35 51°16.893 2°52.724 -999 3.427905 32.272603 1.889828
2008-02-13 08:48:40 51°16.909 2°52.713 -999 3.430702 32.297303 1.924652
2008-02-13 08:48:45 51°16.925 2°52.702 -999 3.42604 32.244984 1.924652
2008-02-13 08:48:50 51°16.942 2°52.691 -999 3.42604 32.244984 1.924652
2008-02-13 08:48:55 51°16.958 2°52.68 -999 3.43153 32.297814 1.9943
2008-02-13 08:49:00 51°16.974 2°52.67 -999 3.432359 32.301945 2.063949
2008-02-13 08:49:05 51°16.991 2°52.659 -999 3.431841 32.292916 2.063949
2008-02-13 08:49:10 51°17.007 2°52.648 -999 3.431323 32.282984 2.063949
2008-02-13 08:49:15 51°17.024 2°52.64 -999 3.428733 32.250521 2.133597
2008-02-13 08:49:20 51°17.041 2°52.63 -999 3.428733 32.250521 2.133597
2008-02-13 08:49:25 51°17.058 2°52.622 -999 3.434845 32.30981 2.168421
2008-02-13 08:49:30 51°17.075 2°52.613 -999 3.424693 32.199332 2.168421
2008-02-13 08:49:35 51°17.091 2°52.606 -999 3.425107 32.199148 2.272893
2008-02-13 08:49:40 51°17.108 2°52.597 -999 3.436295 32.310475 2.238069
2008-02-13 08:49:45 51°17.125 2°52.59 -999 3.431219 32.253893 2.272893
2008-02-13 08:49:50 51°17.142 2°52.582 -999 3.431219 32.253893 2.272893
2008-02-13 08:49:55 51°17.159 2°52.574 -999 3.428733 32.223447 2.307717
2008-02-13 08:50:00 51°17.175 2°52.566 -999 3.431633 32.24919 2.412189
2008-02-13 08:50:05 51°17.192 2°52.557 -999 3.43443 32.272948 2.377365
2008-02-13 08:50:10 51°17.209 2°52.549 -999 3.434119 32.266096 2.377365
2008-02-13 08:50:15 51°17.226 2°52.541 -999 3.434223 32.264469 2.447013
2008-02-13 08:50:20 51°17.243 2°52.532 -999 3.434223 32.264469 2.447013
2008-02-13 08:50:25 51°17.26 2°52.524 -999 3.431322 32.23152 2.447013
2008-02-13 08:50:30 51°17.277 2°52.514 -999 3.437123 32.288396 2.447013
2008-02-13 08:50:35 51°17.293 2°52.505 -999 3.431736 32.22953 2.586309
2008-02-13 08:50:40 51°17.31 2°52.496 -999 3.437641 32.286574 2.586309
2008-02-13 08:50:45 51°17.327 2°52.49 -999 3.440956 32.317521 2.655957
2008-02-13 08:50:50 51°17.344 2°52.482 -999 3.440956 32.317521 2.655957
2008-02-13 08:50:55 51°17.361 2°52.478 -999 3.435362 32.255602 2.586309
2008-02-13 08:51:00 51°17.379 2°52.472 -999 3.435155 32.249837 2.655957
2008-02-13 08:51:05 51°17.396 2°52.468 -999 3.436501 32.260264 2.690782
2008-02-13 08:51:10 51°17.413 2°52.464 -999 3.439609 32.288137 2.725606
2008-02-13 08:51:15 51°17.431 2°52.461 -999 3.438987 32.277151 2.76043
2008-02-13 08:51:20 51°17.448 2°52.458 -999 3.438987 32.277151 2.76043
2008-02-13 08:51:25 51°17.466 2°52.455 -999 3.436501 32.245846 2.864902
2008-02-13 08:51:30 51°17.483 2°52.452 -999 3.440127 32.278202 2.830078
2008-02-13 08:51:35 51°17.501 2°52.449 -999 3.443234 32.304257 2.93455
2008-02-13 08:51:40 51°17.518 2°52.446 -999 3.438573 32.251211 2.969374
2008-02-13 08:51:45 51°17.536 2°52.443 -999 3.440023 32.260006 3.039022
2008-02-13 08:51:50 51°17.553 2°52.439 -999 3.440023 32.260006 3.039022
2008-02-13 08:51:55 51°17.571 2°52.437 -999 3.446549 32.322538 3.039022
2008-02-13 08:52:00 51°17.588 2°52.434 -999 3.444477 32.293759 3.073846
2008-02-13 08:52:05 51°17.606 2°52.433 -999 3.442716 32.269129 3.143494
2008-02-13 08:52:10 51°17.623 2°52.43 -999 3.444166 32.277016 3.10867
2008-02-13 08:52:15 51°17.641 2°52.429 -999 3.447688 32.307353 3.10867
2008-02-13 08:52:20 51°17.658 2°52.427 -999 3.447688 32.307353 3.10867
2008-02-13 08:52:25 51°17.676 2°52.427 -999 3.451625 32.341993 3.143494
2008-02-13 08:52:30 51°17.693 2°52.425 -999 3.453075 32.350767 3.213142
2008-02-13 08:52:35 51°17.71 2°52.424 -999 3.458565 32.401558 3.143494
2008-02-13 08:52:40 51°17.728 2°52.422 -999 3.45525 32.361669 3.178318
2008-02-13 08:52:45 51°17.745 2°52.421 -999 3.454111 32.345314 3.178318
2008-02-13 08:52:50 51°17.762 2°52.42 -999 3.454111 32.345314 3.178318
2008-02-13 08:52:55 51°17.78 2°52.419 -999 3.449656 32.294511 3.213142
2008-02-13 08:53:00 51°17.797 2°52.42 -999 3.457944 32.377048 3.178318
2008-02-13 08:53:05 51°17.814 2°52.423 -999 3.455043 32.341492 3.143494
2008-02-13 08:53:10 51°17.831 2°52.425 -999 3.460015 32.387762 3.178318
2008-02-13 08:53:15 51°17.848 2°52.43 -999 3.459912 32.380375 3.10867
2008-02-13 08:53:20 51°17.865 2°52.432 -999 3.459912 32.380375 3.10867
2008-02-13 08:53:25 51°17.882 2°52.437 -999 3.467681 32.4557 3.143494
2008-02-13 08:53:30 51°17.899 2°52.442 -999 3.470167 32.475213 3.10867
2008-02-13 08:53:35 51°17.915 2°52.447 -999 3.467681 32.443961 3.10867
2008-02-13 08:53:40 51°17.931 2°52.456 -999 3.46996 32.46222 3.143494
2008-02-13 08:53:45 51°17.946 2°52.467 -999 3.466956 32.426503 3.039022
2008-02-13 08:53:50 51°17.962 2°52.477 -999 3.466956 32.426503 3.039022
2008-02-13 08:53:55 51°17.977 2°52.49 -999 3.473068 32.485471 3.004198
2008-02-13 08:54:00 51°17.992 2°52.501 -999 3.467681 32.425918 2.969374
2008-02-13 08:54:05 51°18.007 2°52.514 -999 3.479698 32.545296 2.93455
2008-02-13 08:54:10 51°18.021 2°52.526 -999 3.481045 32.553855 3.004198
2008-02-13 08:54:15 51°18.036 2°52.54 -999 3.480009 32.539477 2.899726
2008-02-13 08:54:20 51°18.049 2°52.556 -999 3.480009 32.539477 2.899726
2008-02-13 08:54:25 51°18.061 2°52.573 -999 3.486535 32.60273 2.864902
2008-02-13 08:54:30 51°18.074 2°52.589 -999 3.487675 32.61094 2.864902
2008-02-13 08:54:35 51°18.087 2°52.607 -999 3.476279 32.489014 2.899726
2008-02-13 08:54:40 51°18.099 2°52.624 -999 3.483635 32.562651 2.864902
2008-02-13 08:54:45 51°18.111 2°52.642 -999 3.48436 32.565656 2.864902
2008-02-13 08:54:50 51°18.123 2°52.66 -999 3.48436 32.565656 2.864902
2008-02-13 08:54:55 51°18.136 2°52.678 -999 3.489954 32.620108 2.969374
2008-02-13 08:55:00 51°18.148 2°52.696 -999 3.486328 32.579753 2.864902
2008-02-13 08:55:05 51°18.16 2°52.714 -999 3.487778 32.592091 2.93455
2008-02-13 08:55:10 51°18.172 2°52.732 -999 3.483945 32.5496 3.004198
2008-02-13 08:55:15 51°18.184 2°52.749 -999 3.4884 32.594017 2.93455
2008-02-13 08:55:20 51°18.197 2°52.767 -999 3.4884 32.594017 2.93455
2008-02-13 08:55:25 51°18.21 2°52.784 -999 3.491715 32.625705 3.004198
2008-02-13 08:55:30 51°18.222 2°52.801 -999 3.494202 32.649698 2.969374
2008-02-13 08:55:35 51°18.235 2°52.818 -999 3.492129 32.627288 3.073846
2008-02-13 08:55:40 51°18.248 2°52.835 -999 3.491301 32.616876 3.039022
2008-02-13 08:55:45 51°18.26 2°52.852 -999 3.49617 32.667407 3.073846
2008-02-13 08:55:50 51°18.273 2°52.869 -999 3.49617 32.667407 3.073846
2008-02-13 08:55:55 51°18.286 2°52.886 -999 3.49503 32.653767 3.073846
2008-02-13 08:56:00 51°18.299 2°52.903 -999 3.490783 32.609691 3.10867
2008-02-13 08:56:05 51°18.311 2°52.92 -999 3.493165 32.633509 3.143494
2008-02-13 08:56:10 51°18.324 2°52.937 -999 3.493373 32.636565 3.10867
2008-02-13 08:56:15 51°18.337 2°52.955 -999 3.490161 32.602336 3.073846
2008-02-13 08:56:20 51°18.349 2°52.972 -999 3.490161 32.602336 3.073846
2008-02-13 08:56:25 51°18.362 2°52.989 -999 3.491197 32.613085 3.10867
2008-02-13 08:56:30 51°18.374 2°53.007 -999 3.491922 32.62061 3.10867
2008-02-13 08:56:35 51°18.386 2°53.025 -999 3.493891 32.640129 3.073846
2008-02-13 08:56:40 51°18.399 2°53.042 -999 3.493994 32.641204 3.178318
2008-02-13 08:56:45 51°18.411 2°53.059 -999 3.495445 32.655348 3.10867
2008-02-13 08:56:50 51°18.424 2°53.077 -999 3.495445 32.655348 3.10867
2008-02-13 08:56:55 51°18.437 2°53.094 -999 3.494823 32.649804 3.143494
2008-02-13 08:57:00 51°18.449 2°53.111 -999 3.494719 32.649635 3.213142
2008-02-13 08:57:05 51°18.462 2°53.127 -999 3.492647 32.628134 3.213142
2008-02-13 08:57:10 51°18.475 2°53.144 -999 3.489229 32.592663 3.10867
2008-02-13 08:57:15 51°18.488 2°53.162 -999 3.497413 32.678496 3.10867
2008-02-13 08:57:20 51°18.501 2°53.178 -999 3.497413 32.678496 3.10867
2008-02-13 08:57:25 51°18.513 2°53.195 -999 3.495237 32.656824 3.143494
2008-02-13 08:57:30 51°18.526 2°53.213 -999 3.495134 32.656655 3.10867
2008-02-13 08:57:35 51°18.539 2°53.229 -999 3.495548 32.66277 3.10867
2008-02-13 08:57:40 51°18.551 2°53.246 -999 3.49099 32.616368 3.073846
2008-02-13 08:57:45 51°18.564 2°53.263 -999 3.48985 32.607258 3.10867
2008-02-13 08:57:50 51°18.577 2°53.28 -999 3.48985 32.607258 3.10867
2008-02-13 08:57:55 51°18.589 2°53.297 -999 3.492751 32.637363 3.10867
2008-02-13 08:58:00 51°18.602 2°53.313 -999 3.493373 32.644721 3.10867
2008-02-13 08:58:05 51°18.615 2°53.33 -999 3.496274 32.67574 3.073846
2008-02-13 08:58:10 51°18.628 2°53.347 -999 3.493787 32.649929 3.10867
2008-02-13 08:58:15 51°18.641 2°53.363 -999 3.49244 32.637762 3.039022
2008-02-13 08:58:20 51°18.654 2°53.38 -999 3.49244 32.637762 3.039022
2008-02-13 08:58:25 51°18.666 2°53.397 -999 3.496481 32.681521 3.143494
2008-02-13 08:58:30 51°18.679 2°53.413 -999 3.493269 32.649992 3.004198
2008-02-13 08:58:35 51°18.692 2°53.43 -999 3.491404 32.63154 3.073846
2008-02-13 08:58:40 51°18.704 2°53.447 -999 3.496481 32.685152 3.039022
2008-02-13 08:58:45 51°18.717 2°53.464 -999 3.49099 32.629957 3.039022
2008-02-13 08:58:50 51°18.73 2°53.481 -999 3.49099 32.629957 3.039022
2008-02-13 08:58:55 51°18.742 2°53.498 -999 3.495134 32.67389 3.004198
2008-02-13 08:59:00 51°18.755 2°53.516 -999 3.488918 32.61207 3.039022
2008-02-13 08:59:05 51°18.767 2°53.533 -999 3.489436 32.620166 3.039022
2008-02-13 08:59:10 51°18.779 2°53.55 -999 3.492233 32.651933 2.969374
2008-02-13 08:59:15 51°18.792 2°53.567 -999 3.488193 32.611789 2.93455
2008-02-13 08:59:20 51°18.804 2°53.584 -999 3.488193 32.611789 2.93455
2008-02-13 08:59:25 51°18.817 2°53.601 -999 3.4884 32.616659 2.93455
2008-02-13 08:59:30 51°18.83 2°53.617 -999 3.486017 32.594633 2.969374
2008-02-13 08:59:35 51°18.843 2°53.634 -999 3.492337 32.665715 2.899726
2008-02-13 08:59:40 51°18.856 2°53.65 -999 3.488918 32.633827 2.899726
2008-02-13 08:59:45 51°18.869 2°53.666 -999 3.488504 32.634058 2.899726
2008-02-13 08:59:50 51°18.882 2°53.682 -999 3.488504 32.634058 2.899726
2008-02-13 08:59:55 51°18.896 2°53.695 -999 3.482392 32.574181 2.899726
2008-02-13 09:00:00 51°18.911 2°53.707 -999 3.485085 32.607604 2.864902
2008-02-13 09:00:05 51°18.925 2°53.72 -999 3.485189 32.612308 2.864902
2008-02-13 09:00:10 51°18.94 2°53.731 -999 3.480527 32.570205 2.899726
2008-02-13 09:00:15 51°18.955 2°53.744 -999 3.48177 32.588564 2.830078
2008-02-13 09:00:20 51°18.97 2°53.755 -999 3.48177 32.588564 2.830078
2008-02-13 09:00:25 51°18.985 2°53.766 -999 3.481356 32.587883 2.899726
2008-02-13 09:00:30 51°19 2°53.777 -999 3.474208 32.518107 2.830078
2008-02-13 09:00:35 51°19.015 2°53.788 -999 3.478352 32.564808 2.830078
2008-02-13 09:00:40 51°19.03 2°53.799 -999 3.475451 32.538273 2.76043
2008-02-13 09:00:45 51°19.046 2°53.811 -999 3.47887 32.578354 2.76043
2008-02-13 09:00:50 51°19.061 2°53.822 -999 3.47887 32.578354 2.76043
2008-02-13 09:00:55 51°19.076 2°53.833 -999 3.47628 32.554139 2.795254
2008-02-13 09:01:00 51°19.091 2°53.844 -999 3.479906 32.596388 2.795254
2008-02-13 09:01:05 51°19.106 2°53.855 -999 3.479077 32.589582 2.830078
2008-02-13 09:01:10 51°19.121 2°53.867 -999 3.477937 32.578635 2.795254
2008-02-13 09:01:15 51°19.135 2°53.879 -999 3.4711 32.510234 2.76043
2008-02-13 09:01:20 51°19.15 2°53.891 -999 3.4711 32.510234 2.76043
2008-02-13 09:01:25 51°19.164 2°53.905 -999 3.466645 32.466621 2.725606
2008-02-13 09:01:30 51°19.178 2°53.918 -999 3.465299 32.457137 2.725606
2008-02-13 09:01:35 51°19.192 2°53.931 -999 3.470686 32.515886 2.725606
2008-02-13 09:01:40 51°19.207 2°53.944 -999 3.459083 32.39882 2.690782
2008-02-13 09:01:45 51°19.221 2°53.958 -999 3.462398 32.441431 2.76043
2008-02-13 09:01:50 51°19.235 2°53.97 -999 3.462398 32.441431 2.76043
2008-02-13 09:01:55 51°19.25 2°53.984 -999 3.469132 32.518745 2.76043
2008-02-13 09:02:00 51°19.264 2°53.996 -999 3.46302 32.462372 2.690782
2008-02-13 09:02:05 51°19.278 2°54.011 -999 3.465299 32.492437 2.725606
2008-02-13 09:02:10 51°19.292 2°54.024 -999 3.464263 32.490712 2.690782
2008-02-13 09:02:15 51°19.306 2°54.039 -999 3.4538 32.387197 2.76043
2008-02-13 09:02:20 51°19.319 2°54.053 -999 3.4538 32.387197 2.76043
2008-02-13 09:02:25 51°19.333 2°54.068 -999 3.447171 32.322694 2.76043
2008-02-13 09:02:30 51°19.346 2°54.083 -999 3.45494 32.407198 2.795254
2008-02-13 09:02:35 51°19.36 2°54.098 -999 3.452661 32.388889 2.76043
2008-02-13 09:02:40 51°19.373 2°54.113 -999 3.447378 32.337483 2.76043
2008-02-13 09:02:45 51°19.387 2°54.127 -999 3.442095 32.286079 2.690782
2008-02-13 09:02:50 51°19.4 2°54.142 -999 3.442095 32.286079 2.690782
2008-02-13 09:02:55 51°19.414 2°54.156 -999 3.446549 32.339686 2.76043
2008-02-13 09:03:00 51°19.428 2°54.17 -999 3.450072 32.382707 2.725606
2008-02-13 09:03:05 51°19.442 2°54.184 -999 3.443545 32.322836 2.795254
2008-02-13 09:03:10 51°19.456 2°54.198 -999 3.443235 32.325919 2.76043
2008-02-13 09:03:15 51°19.469 2°54.212 -999 3.443338 32.332419 2.725606
2008-02-13 09:03:20 51°19.482 2°54.228 -999 3.443338 32.332419 2.725606
2008-02-13 09:03:25 51°19.496 2°54.243 -999 3.436916 32.272698 2.725606
2008-02-13 09:03:30 51°19.509 2°54.259 -999 3.440852 32.320055 2.725606
2008-02-13 09:03:35 51°19.521 2°54.275 -999 3.435776 32.273451 2.725606
2008-02-13 09:03:40 51°19.534 2°54.291 -999 3.431426 32.235304 2.76043
2008-02-13 09:03:45 51°19.547 2°54.307 -999 3.435155 32.281414 2.725606
2008-02-13 09:03:50 51°19.56 2°54.323 -999 3.435155 32.281414 2.725606
2008-02-13 09:03:55 51°19.573 2°54.339 -999 3.428318 32.214617 2.795254
2008-02-13 09:04:00 51°19.586 2°54.355 -999 3.425729 32.192114 2.725606
2008-02-13 09:04:05 51°19.599 2°54.371 -999 3.427904 32.220212 2.725606
2008-02-13 09:04:10 51°19.612 2°54.386 -999 3.424797 32.1923 2.76043
2008-02-13 09:04:15 51°19.625 2°54.402 -999 3.424486 32.192663 2.76043
2008-02-13 09:04:20 51°19.638 2°54.417 -999 3.424486 32.192663 2.76043
2008-02-13 09:04:25 51°19.651 2°54.433 -999 3.423864 32.191586 2.76043
2008-02-13 09:04:30 51°19.665 2°54.448 -999 3.416613 32.123131 2.76043
2008-02-13 09:04:35 51°19.678 2°54.464 -999 3.423139 32.197543 2.725606
2008-02-13 09:04:40 51°19.691 2°54.479 -999 3.409881 32.064566 2.725606
2008-02-13 09:04:45 51°19.704 2°54.494 -999 3.414853 32.124552 2.690782
2008-02-13 09:04:50 51°19.717 2°54.51 -999 3.414853 32.124552 2.690782
2008-02-13 09:04:55 51°19.73 2°54.526 -999 3.414542 32.128511 2.725606
2008-02-13 09:05:00 51°19.742 2°54.542 -999 3.414128 32.129588 2.76043
2008-02-13 09:05:05 51°19.755 2°54.558 -999 3.411124 32.10632 2.725606
2008-02-13 09:05:10 51°19.768 2°54.574 -999 3.403045 32.027339 2.725606
2008-02-13 09:05:15 51°19.781 2°54.59 -999 3.406566 32.068614 2.655957
2008-02-13 09:05:20 51°19.794 2°54.606 -999 3.406566 32.068614 2.655957
2008-02-13 09:05:25 51°19.807 2°54.621 -999 3.403252 32.039386 2.690782
2008-02-13 09:05:30 51°19.82 2°54.637 -999 3.397348 31.980413 2.690782
2008-02-13 09:05:35 51°19.833 2°54.652 -999 3.402734 32.040268 2.690782
2008-02-13 09:05:40 51°19.846 2°54.668 -999 3.402631 32.044581 2.690782
2008-02-13 09:05:45 51°19.86 2°54.683 -999 3.399523 32.016606 2.76043
2008-02-13 09:05:50 51°19.873 2°54.699 -999 3.399523 32.016606 2.76043
2008-02-13 09:05:55 51°19.886 2°54.714 -999 3.396209 31.983768 2.690782
2008-02-13 09:06:00 51°19.899 2°54.729 -999 3.401077 32.037338 2.690782
2008-02-13 09:06:05 51°19.912 2°54.744 -999 3.390926 31.933063 2.76043
2008-02-13 09:06:10 51°19.925 2°54.759 -999 3.399523 32.025595 2.725606
2008-02-13 09:06:15 51°19.938 2°54.775 -999 3.396105 31.991666 2.76043
2008-02-13 09:06:20 51°19.951 2°54.791 -999 3.396105 31.991666 2.76043
2008-02-13 09:06:25 51°19.964 2°54.807 -999 3.398798 32.02521 2.76043
2008-02-13 09:06:30 51°19.977 2°54.823 -999 3.393205 31.971232 2.795254
2008-02-13 09:06:35 51°19.99 2°54.839 -999 3.394241 31.986551 2.725606
2008-02-13 09:06:40 51°20.003 2°54.855 -999 3.38958 31.940516 2.795254
2008-02-13 09:06:45 51°20.016 2°54.871 -999 3.388233 31.930028 2.795254
2008-02-13 09:06:50 51°20.029 2°54.887 -999 3.388233 31.930028 2.795254
2008-02-13 09:06:55 51°20.042 2°54.903 -999 3.389269 31.943549 2.725606
2008-02-13 09:07:00 51°20.055 2°54.919 -999 3.382951 31.883768 2.725606
2008-02-13 09:07:05 51°20.068 2°54.934 -999 3.383055 31.891124 2.76043
2008-02-13 09:07:10 51°20.081 2°54.951 -999 3.37684 31.831516 2.76043
2008-02-13 09:07:15 51°20.094 2°54.966 -999 3.379119 31.860717 2.76043
2008-02-13 09:07:20 51°20.107 2°54.981 -999 3.379119 31.860717 2.76043
2008-02-13 09:07:25 51°20.121 2°54.997 -999 3.380672 31.879656 2.725606
2008-02-13 09:07:30 51°20.134 2°55.012 -999 3.376737 31.841175 2.725606
2008-02-13 09:07:35 51°20.148 2°55.028 -999 3.38378 31.918445 2.690782
2008-02-13 09:07:40 51°20.161 2°55.043 -999 3.381915 31.900732 2.725606
2008-02-13 09:07:45 51°20.174 2°55.059 -999 3.379119 31.874161 2.725606
2008-02-13 09:07:50 51°20.187 2°55.076 -999 3.379119 31.874161 2.725606
2008-02-13 09:07:55 51°20.2 2°55.092 -999 3.37539 31.836941 2.690782
2008-02-13 09:08:00 51°20.213 2°55.108 -999 3.378601 31.875019 2.725606
2008-02-13 09:08:05 51°20.226 2°55.124 -999 3.375805 31.84934 2.690782
2008-02-13 09:08:10 51°20.239 2°55.14 -999 3.376012 31.856886 2.655957
2008-02-13 09:08:15 51°20.252 2°55.156 -999 3.36669 31.76202 2.690782
2008-02-13 09:08:20 51°20.265 2°55.172 -999 3.36669 31.76202 2.690782
2008-02-13 09:08:25 51°20.278 2°55.188 -999 3.372283 31.821444 2.725606
2008-02-13 09:08:30 51°20.292 2°55.203 -999 3.372801 31.830448 2.725606
2008-02-13 09:08:35 51°20.305 2°55.218 -999 3.367208 31.773699 2.725606
2008-02-13 09:08:40 51°20.319 2°55.234 -999 3.367622 31.77893 2.725606
2008-02-13 09:08:45 51°20.332 2°55.249 -999 3.363169 31.735896 2.690782
2008-02-13 09:08:50 51°20.345 2°55.265 -999 3.363169 31.735896 2.690782
2008-02-13 09:08:55 51°20.358 2°55.281 -999 3.371144 31.821164 2.690782
2008-02-13 09:09:00 51°20.371 2°55.297 -999 3.367415 31.784815 2.725606
2008-02-13 09:09:05 51°20.384 2°55.313 -999 3.369487 31.808293 2.725606
2008-02-13 09:09:10 51°20.397 2°55.329 -999 3.365965 31.773215 2.690782
2008-02-13 09:09:15 51°20.41 2°55.345 -999 3.367519 31.78948 2.655957
2008-02-13 09:09:20 51°20.423 2°55.361 -999 3.367519 31.78948 2.655957
2008-02-13 09:09:25 51°20.436 2°55.377 -999 3.371144 31.830127 2.690782
2008-02-13 09:09:30 51°20.45 2°55.392 -999 3.366794 31.789947 2.655957
2008-02-13 09:09:35 51°20.463 2°55.407 -999 3.364515 31.773247 2.655957
2008-02-13 09:09:40 51°20.476 2°55.423 -999 3.353744 31.665812 2.621133
2008-02-13 09:09:45 51°20.489 2°55.438 -999 3.350948 31.644561 2.586309
2008-02-13 09:09:50 51°20.502 2°55.454 -999 3.350948 31.644561 2.586309
2008-02-13 09:09:55 51°20.516 2°55.469 -999 3.351569 31.660886 2.551485
2008-02-13 09:10:00 51°20.529 2°55.484 -999 3.355609 31.711249 2.516661
2008-02-13 09:10:05 51°20.542 2°55.5 -999 3.352294 31.683668 2.516661
2008-02-13 09:10:10 51°20.555 2°55.515 -999 3.34898 31.655187 2.516661
2008-02-13 09:10:15 51°20.568 2°55.53 -999 3.34463 31.618521 2.481837
2008-02-13 09:10:20 51°20.581 2°55.546 -999 3.34463 31.618521 2.481837
2008-02-13 09:10:25 51°20.595 2°55.561 -999 3.343388 31.61531 2.447013
2008-02-13 09:10:30 51°20.608 2°55.577 -999 3.337277 31.561945 2.447013
2008-02-13 09:10:35 51°20.621 2°55.593 -999 3.336242 31.558216 2.481837
2008-02-13 09:10:40 51°20.634 2°55.609 -999 3.336345 31.566436 2.447013
2008-02-13 09:10:45 51°20.647 2°55.625 -999 3.332203 31.528329 2.447013
2008-02-13 09:10:50 51°20.66 2°55.641 -999 3.332203 31.528329 2.447013
2008-02-13 09:10:55 51°20.673 2°55.657 -999 3.332203 31.531894 2.447013
2008-02-13 09:11:00 51°20.686 2°55.673 -999 3.334585 31.560453 2.412189
2008-02-13 09:11:05 51°20.699 2°55.689 -999 3.333031 31.548611 2.447013
2008-02-13 09:11:10 51°20.712 2°55.705 -999 3.325782 31.477887 2.447013
2008-02-13 09:11:15 51°20.725 2°55.721 -999 3.325575 31.481055 2.377365
2008-02-13 09:11:20 51°20.738 2°55.737 -999 3.325575 31.481055 2.377365
2008-02-13 09:11:25 51°20.751 2°55.753 -999 3.321018 31.437686 2.377365
2008-02-13 09:11:30 51°20.764 2°55.769 -999 3.32195 31.451915 2.377365
2008-02-13 09:11:35 51°20.778 2°55.784 -999 3.31149 31.347484 2.377365
2008-02-13 09:11:40 51°20.791 2°55.799 -999 3.325264 31.4965 2.377365
2008-02-13 09:11:45 51°20.804 2°55.815 -999 3.320708 31.453998 2.342541
2008-02-13 09:11:50 51°20.818 2°55.83 -999 3.320708 31.453998 2.342541
2008-02-13 09:11:55 51°20.831 2°55.845 -999 3.318947 31.439073 2.342541
2008-02-13 09:12:00 51°20.844 2°55.861 -999 3.316565 31.420289 2.307717
2008-02-13 09:12:05 51°20.858 2°55.876 -999 3.317911 31.438877 2.238069
2008-02-13 09:12:10 51°20.871 2°55.892 -999 3.313148 31.390625 2.307717
2008-02-13 09:12:15 51°20.884 2°55.908 -999 3.313251 31.395268 2.307717
2008-02-13 09:12:20 51°20.897 2°55.925 -999 3.313251 31.395268 2.307717
2008-02-13 09:12:25 51°20.91 2°55.941 -999 3.313666 31.403176 2.238069
2008-02-13 09:12:30 51°20.922 2°55.958 -999 3.30362 31.301229 2.203245
2008-02-13 09:12:35 51°20.935 2°55.975 -999 3.311284 31.385269 2.238069
2008-02-13 09:12:40 51°20.947 2°55.992 -999 3.310145 31.377747 2.272893
2008-02-13 09:12:45 51°20.959 2°56.009 -999 3.309005 31.369334 2.238069
2008-02-13 09:12:50 51°20.972 2°56.027 -999 3.309005 31.369334 2.238069
2008-02-13 09:12:55 51°20.984 2°56.043 -999 3.305795 31.340933 2.238069
2008-02-13 09:13:00 51°20.996 2°56.061 -999 3.294921 31.230249 2.272893
2008-02-13 09:13:05 51°21.009 2°56.078 -999 3.298339 31.268805 2.272893
2008-02-13 09:13:10 51°21.021 2°56.095 -999 3.308177 31.376633 2.168421
2008-02-13 09:13:15 51°21.034 2°56.112 -999 3.308488 31.383458 2.203245
2008-02-13 09:13:20 51°21.046 2°56.128 -999 3.308488 31.383458 2.203245
2008-02-13 09:13:25 51°21.059 2°56.145 -999 3.307349 31.37415 2.203245
2008-02-13 09:13:30 51°21.072 2°56.162 -999 3.307245 31.376621 2.238069
2008-02-13 09:13:35 51°21.084 2°56.178 -999 3.306313 31.369489 2.203245
2008-02-13 09:13:40 51°21.097 2°56.195 -999 3.305899 31.367803 2.238069
2008-02-13 09:13:45 51°21.11 2°56.212 -999 3.303103 31.339289 2.272893
2008-02-13 09:13:50 51°21.123 2°56.228 -999 3.303103 31.339289 2.272893
2008-02-13 09:13:55 51°21.135 2°56.245 -999 3.304553 31.356314 2.272893
2008-02-13 09:14:00 51°21.148 2°56.262 -999 3.303103 31.343735 2.272893
2008-02-13 09:14:05 51°21.161 2°56.279 -999 3.302274 31.335911 2.272893
2008-02-13 09:14:10 51°21.174 2°56.296 -999 3.301964 31.335311 2.272893
2008-02-13 09:14:15 51°21.186 2°56.313 -999 3.300514 31.32273 2.307717
2008-02-13 09:14:20 51°21.198 2°56.33 -999 3.300514 31.32273 2.307717
2008-02-13 09:14:25 51°21.211 2°56.347 -999 3.297718 31.295988 2.342541
2008-02-13 09:14:30 51°21.223 2°56.364 -999 3.298339 31.302523 2.342541
2008-02-13 09:14:35 51°21.235 2°56.382 -999 3.296682 31.286873 2.307717
2008-02-13 09:14:40 51°21.248 2°56.399 -999 3.297097 31.293006 2.342541
2008-02-13 09:14:45 51°21.259 2°56.418 -999 3.296268 31.287844 2.307717
2008-02-13 09:14:50 51°21.271 2°56.435 -999 3.296268 31.287844 2.307717
2008-02-13 09:14:55 51°21.283 2°56.453 -999 3.295129 31.278526 2.307717
2008-02-13 09:15:00 51°21.295 2°56.471 -999 3.291505 31.242176 2.342541
2008-02-13 09:15:05 51°21.307 2°56.489 -999 3.29109 31.241367 2.307717
2008-02-13 09:15:10 51°21.319 2°56.507 -999 3.292437 31.257303 2.377365
2008-02-13 09:15:15 51°21.332 2°56.524 -999 3.28612 31.194401 2.272893
2008-02-13 09:15:20 51°21.344 2°56.542 -999 3.28612 31.194401 2.272893
2008-02-13 09:15:25 51°21.356 2°56.56 -999 3.289951 31.237367 2.307717
2008-02-13 09:15:30 51°21.367 2°56.578 -999 3.290366 31.244387 2.342541
2008-02-13 09:15:35 51°21.38 2°56.595 -999 3.288294 31.223482 2.342541
2008-02-13 09:15:40 51°21.392 2°56.613 -999 3.283738 31.177317 2.307717
2008-02-13 09:15:45 51°21.404 2°56.631 -999 3.285913 31.203741 2.307717
2008-02-13 09:15:50 51°21.416 2°56.649 -999 3.285913 31.203741 2.307717
2008-02-13 09:15:55 51°21.428 2°56.666 -999 3.286741 31.213345 2.342541
2008-02-13 09:16:00 51°21.44 2°56.684 -999 3.286741 31.216005 2.342541
2008-02-13 09:16:05 51°21.452 2°56.702 -999 3.28467 31.195983 2.377365
2008-02-13 09:16:10 51°21.464 2°56.72 -999 3.283324 31.184474 2.342541
2008-02-13 09:16:15 51°21.476 2°56.737 -999 3.284877 31.201708 2.307717
2008-02-13 09:16:20 51°21.489 2°56.755 -999 3.284877 31.201708 2.307717
2008-02-13 09:16:25 51°21.501 2°56.773 -999 3.281356 31.166426 2.342541
2008-02-13 09:16:30 51°21.513 2°56.791 -999 3.281046 31.165814 2.342541
2008-02-13 09:16:35 51°21.525 2°56.809 -999 3.281874 31.174533 2.307717
2008-02-13 09:16:40 51°21.537 2°56.826 -999 3.277835 31.132032 2.342541
2008-02-13 09:16:45 51°21.549 2°56.844 -999 3.281046 31.1667 2.307717
2008-02-13 09:16:50 51°21.561 2°56.862 -999 3.281046 31.1667 2.307717
2008-02-13 09:16:55 51°21.573 2°56.88 -999 3.280528 31.163022 2.342541
2008-02-13 09:17:00 51°21.585 2°56.898 -999 3.280735 31.168745 2.307717
2008-02-13 09:17:05 51°21.597 2°56.916 -999 3.274729 31.1073 2.307717
2008-02-13 09:17:10 51°21.61 2°56.934 -999 3.2768 31.132637 2.307717
2008-02-13 09:17:15 51°21.622 2°56.951 -999 3.274833 31.113696 2.238069
2008-02-13 09:17:20 51°21.635 2°56.969 -999 3.274833 31.113696 2.238069
2008-02-13 09:17:25 51°21.647 2°56.986 -999 3.279285 31.161456 2.307717
2008-02-13 09:17:30 51°21.659 2°57.003 -999 3.273279 31.099115 2.272893
2008-02-13 09:17:35 51°21.671 2°57.021 -999 3.277214 31.141423 2.238069
2008-02-13 09:17:40 51°21.684 2°57.039 -999 3.278457 31.15362 2.272893
2008-02-13 09:17:45 51°21.696 2°57.056 -999 3.278975 31.158186 2.307717
2008-02-13 09:17:50 51°21.709 2°57.074 -999 3.278975 31.158186 2.307717
2008-02-13 09:17:55 51°21.721 2°57.091 -999 3.278353 31.151644 2.272893
2008-02-13 09:18:00 51°21.733 2°57.109 -999 3.276386 31.130047 2.238069
2008-02-13 09:18:05 51°21.746 2°57.126 -999 3.279078 31.159276 2.272893
2008-02-13 09:18:10 51°21.758 2°57.144 -999 3.276075 31.127661 2.272893
2008-02-13 09:18:15 51°21.771 2°57.161 -999 3.276904 31.137267 2.272893
2008-02-13 09:18:20 51°21.783 2°57.179 -999 3.276904 31.137267 2.272893
2008-02-13 09:18:25 51°21.795 2°57.197 -999 3.27504 31.119415 2.238069
2008-02-13 09:18:30 51°21.807 2°57.214 -999 3.273901 31.109193 2.238069
2008-02-13 09:18:35 51°21.82 2°57.232 -999 3.276179 31.133177 2.238069
2008-02-13 09:18:40 51°21.832 2°57.25 -999 3.275765 31.129701 2.238069
2008-02-13 09:18:45 51°21.844 2°57.268 -999 3.27535 31.12534 2.238069
2008-02-13 09:18:50 51°21.856 2°57.287 -999 3.27535 31.12534 2.238069
2008-02-13 09:18:55 51°21.868 2°57.305 -999 3.274211 31.114233 2.238069
2008-02-13 09:19:00 51°21.88 2°57.322 -999 3.274211 31.115118 2.272893
2008-02-13 09:19:05 51°21.893 2°57.34 -999 3.27214 31.095083 2.307717
2008-02-13 09:19:10 51°21.905 2°57.358 -999 3.271001 31.085743 2.238069
2008-02-13 09:19:15 51°21.918 2°57.375 -999 3.269552 31.071364 2.238069
2008-02-13 09:19:20 51°21.93 2°57.393 -999 3.269552 31.071364 2.238069
2008-02-13 09:19:25 51°21.942 2°57.41 -999 3.273176 31.111294 2.238069
2008-02-13 09:19:30 51°21.955 2°57.428 -999 3.27038 31.085391 2.272893
2008-02-13 09:19:35 51°21.967 2°57.446 -999 3.271726 31.101336 2.272893
2008-02-13 09:19:40 51°21.979 2°57.464 -999 3.270587 31.091994 2.272893
2008-02-13 09:19:45 51°21.992 2°57.481 -999 3.268827 31.074339 2.307717
2008-02-13 09:19:50 51°22.004 2°57.499 -999 3.268827 31.074339 2.307717
2008-02-13 09:19:55 51°22.016 2°57.517 -999 3.269241 31.079585 2.272893
2008-02-13 09:20:00 51°22.029 2°57.535 -999 3.263649 31.021585 2.307717
2008-02-13 09:20:05 51°22.041 2°57.553 -999 3.263546 31.023143 2.307717
2008-02-13 09:20:10 51°22.053 2°57.571 -999 3.266342 31.054353 2.342541
2008-02-13 09:20:15 51°22.065 2°57.589 -999 3.266135 31.055707 2.307717
2008-02-13 09:20:20 51°22.077 2°57.607 -999 3.266135 31.055707 2.307717
2008-02-13 09:20:25 51°22.089 2°57.625 -999 3.263442 31.029116 2.307717
2008-02-13 09:20:30 51°22.101 2°57.643 -999 3.262821 31.025222 2.307717
2008-02-13 09:20:35 51°22.113 2°57.661 -999 3.261993 31.019145 2.307717
2008-02-13 09:20:40 51°22.125 2°57.679 -999 3.262821 31.029638 2.272893
2008-02-13 09:20:45 51°22.137 2°57.697 -999 3.261578 31.017431 2.307717
2008-02-13 09:20:50 51°22.149 2°57.715 -999 3.261578 31.017431 2.307717
2008-02-13 09:20:55 51°22.161 2°57.733 -999 3.263442 31.037951 2.272893
2008-02-13 09:21:00 51°22.174 2°57.751 -999 3.262096 31.022885 2.307717
2008-02-13 09:21:05 51°22.186 2°57.769 -999 3.264581 31.048184 2.342541
2008-02-13 09:21:10 51°22.198 2°57.786 -999 3.263546 31.037274 2.342541
2008-02-13 09:21:15 51°22.21 2°57.804 -999 3.264374 31.04335 2.377365
2008-02-13 09:21:20 51°22.222 2°57.822 -999 3.264374 31.04335 2.377365
2008-02-13 09:21:25 51°22.234 2°57.84 -999 3.266135 31.061011 2.412189
2008-02-13 09:21:30 51°22.246 2°57.858 -999 3.264374 31.04335 2.447013
2008-02-13 09:21:35 51°22.258 2°57.877 -999 3.264788 31.048598 2.412189
2008-02-13 09:21:40 51°22.27 2°57.895 -999 3.266756 31.068441 2.412189
2008-02-13 09:21:45 51°22.282 2°57.913 -999 3.267274 31.073012 2.412189
2008-02-13 09:21:50 51°22.295 2°57.931 -999 3.267274 31.073012 2.412189
2008-02-13 09:21:55 51°22.307 2°57.949 -999 3.265824 31.056855 2.412189
2008-02-13 09:22:00 51°22.319 2°57.967 -999 3.269759 31.097426 2.447013
2008-02-13 09:22:05 51°22.331 2°57.985 -999 3.270691 31.10636 2.412189
2008-02-13 09:22:10 51°22.343 2°58.003 -999 3.271933 31.118567 2.412189
2008-02-13 09:22:15 51°22.356 2°58.021 -999 3.273176 31.130775 2.412189
2008-02-13 09:22:20 51°22.368 2°58.039 -999 3.273176 31.130775 2.412189
2008-02-13 09:22:25 51°22.38 2°58.057 -999 3.271933 31.118567 2.412189
2008-02-13 09:22:30 51°22.392 2°58.075 -999 3.274212 31.142572 2.412189
2008-02-13 09:22:35 51°22.404 2°58.094 -999 3.272555 31.125114 2.447013
2008-02-13 09:22:40 51°22.416 2°58.112 -999 3.270898 31.107657 2.447013
2008-02-13 09:22:45 51°22.428 2°58.13 -999 3.270898 31.108542 2.377365
2008-02-13 09:22:50 51°22.44 2°58.148 -999 3.270898 31.108542 2.377365
2008-02-13 09:22:55 51°22.452 2°58.166 -999 3.272348 31.123817 2.412189
2008-02-13 09:23:00 51°22.464 2°58.184 -999 3.27328 31.133638 2.377365
2008-02-13 09:23:05 51°22.477 2°58.201 -999 3.271726 31.117271 2.412189
2008-02-13 09:23:10 51°22.489 2°58.219 -999 3.271416 31.114883 2.377365
2008-02-13 09:23:15 51°22.501 2°58.237 -999 3.275972 31.162898 2.377365
2008-02-13 09:23:20 51°22.514 2°58.255 -999 3.275972 31.162898 2.377365
2008-02-13 09:23:25 51°22.526 2°58.273 -999 3.270898 31.110313 2.342541
2008-02-13 09:23:30 51°22.538 2°58.291 -999 3.267274 31.072127 2.342541
2008-02-13 09:23:35 51°22.55 2°58.309 -999 3.271416 31.115769 2.342541
2008-02-13 09:23:40 51°22.563 2°58.327 -999 3.273797 31.140867 2.307717
2008-02-13 09:23:45 51°22.575 2°58.344 -999 3.276179 31.16508 2.342541
2008-02-13 09:23:50 51°22.587 2°58.362 -999 3.276179 31.16508 2.342541
2008-02-13 09:23:55 51°22.599 2°58.38 -999 3.276076 31.164876 2.342541
2008-02-13 09:24:00 51°22.612 2°58.398 -999 3.272348 31.125589 2.272893
2008-02-13 09:24:05 51°22.624 2°58.417 -999 3.274108 31.145027 2.342541
2008-02-13 09:24:10 51°22.636 2°58.435 -999 3.275661 31.162285 2.307717
2008-02-13 09:24:15 51°22.648 2°58.453 -999 3.272866 31.133704 2.307717
2008-02-13 09:24:20 51°22.66 2°58.471 -999 3.272866 31.133704 2.307717
2008-02-13 09:24:25 51°22.673 2°58.49 -999 3.272969 31.134796 2.307717
2008-02-13 09:24:30 51°22.685 2°58.508 -999 3.275558 31.161193 2.272893
2008-02-13 09:24:35 51°22.697 2°58.526 -999 3.271519 31.118632 2.272893
2008-02-13 09:24:40 51°22.709 2°58.544 -999 3.274729 31.152462 2.307717
2008-02-13 09:24:45 51°22.722 2°58.562 -999 3.275972 31.166446 2.307717
2008-02-13 09:24:50 51°22.734 2°58.58 -999 3.275972 31.166446 2.307717
2008-02-13 09:24:55 51°22.746 2°58.599 -999 3.274419 31.150075 2.272893
2008-02-13 09:25:00 51°22.758 2°58.617 -999 3.27473 31.155123 2.307717
2008-02-13 09:25:05 51°22.77 2°58.635 -999 3.276179 31.172179 2.307717
2008-02-13 09:25:10 51°22.782 2°58.654 -999 3.27473 31.156897 2.272893
2008-02-13 09:25:15 51°22.794 2°58.673 -999 3.273901 31.147278 2.272893
2008-02-13 09:25:20 51°22.806 2°58.691 -999 3.273901 31.147278 2.272893
2008-02-13 09:25:25 51°22.818 2°58.709 -999 3.276283 31.172383 2.272893
2008-02-13 09:25:30 51°22.831 2°58.727 -999 3.27504 31.159284 2.272893
2008-02-13 09:25:35 51°22.843 2°58.745 -999 3.275144 31.161263 2.342541
2008-02-13 09:25:40 51°22.855 2°58.763 -999 3.272348 31.131793 2.272893
2008-02-13 09:25:45 51°22.867 2°58.781 -999 3.275972 31.169996 2.238069
2008-02-13 09:25:50 51°22.88 2°58.799 -999 3.275972 31.169996 2.238069
2008-02-13 09:25:55 51°22.892 2°58.817 -999 3.27359 31.14489 2.272893
2008-02-13 09:26:00 51°22.904 2°58.835 -999 3.276904 31.180708 2.238069
2008-02-13 09:26:05 51°22.916 2°58.854 -999 3.274212 31.152326 2.272893
2008-02-13 09:26:10 51°22.928 2°58.872 -999 3.273901 31.149938 2.238069
2008-02-13 09:26:15 51°22.941 2°58.89 -999 3.275765 31.171363 2.203245
2008-02-13 09:26:20 51°22.953 2°58.908 -999 3.275765 31.171363 2.203245
2008-02-13 09:26:25 51°22.965 2°58.926 -999 3.27504 31.163721 2.168421
2008-02-13 09:26:30 51°22.977 2°58.945 -999 3.277836 31.193198 2.203245
2008-02-13 09:26:35 51°22.989 2°58.963 -999 3.275454 31.168975 2.168421
2008-02-13 09:26:40 51°23.001 2°58.982 -999 3.276801 31.183168 2.203245
2008-02-13 09:26:45 51°23.013 2°59 -999 3.27473 31.163108 2.168421
2008-02-13 09:26:50 51°23.024 2°59.018 -999 3.27473 31.163108 2.168421
2008-02-13 09:26:55 51°23.037 2°59.037 -999 3.277836 31.196752 2.133597
2008-02-13 09:27:00 51°23.049 2°59.055 -999 3.275558 31.173618 2.133597
2008-02-13 09:27:05 51°23.061 2°59.073 -999 3.27649 31.186109 2.098773
2008-02-13 09:27:10 51°23.073 2°59.091 -999 3.277836 31.200306 2.098773
2008-02-13 09:27:15 51°23.085 2°59.11 -999 3.275972 31.182425 2.133597
2008-02-13 09:27:20 51°23.097 2°59.128 -999 3.275972 31.182425 2.133597
2008-02-13 09:27:25 51°23.109 2°59.146 -999 3.272969 31.151646 2.063949
2008-02-13 09:27:30 51°23.12 2°59.164 -999 3.276179 31.186386 2.098773
2008-02-13 09:27:35 51°23.132 2°59.183 -999 3.272762 31.152124 2.063949
2008-02-13 09:27:40 51°23.145 2°59.201 -999 3.278251 31.210008 2.098773
2008-02-13 09:27:45 51°23.156 2°59.219 -999 3.273176 31.155604 2.098773
2008-02-13 09:27:50 51°23.169 2°59.237 -999 3.273176 31.155604 2.098773
2008-02-13 09:27:55 51°23.181 2°59.255 -999 3.277733 31.203658 2.133597
2008-02-13 09:28:00 51°23.193 2°59.272 -999 3.274316 31.167617 2.063949
2008-02-13 09:28:05 51°23.205 2°59.291 -999 3.274833 31.176629 2.063949
2008-02-13 09:28:10 51°23.217 2°59.309 -999 3.275869 31.18844 2.063949
2008-02-13 09:28:15 51°23.229 2°59.327 -999 3.274626 31.176221 2.063949
2008-02-13 09:28:20 51°23.241 2°59.345 -999 3.274626 31.176221 2.063949
2008-02-13 09:28:25 51°23.253 2°59.363 -999 3.27618 31.192606 2.098773
2008-02-13 09:28:30 51°23.265 2°59.381 -999 3.27473 31.176425 2.029124
2008-02-13 09:28:35 51°23.277 2°59.399 -999 3.274523 31.175129 2.029124
2008-02-13 09:28:40 51°23.289 2°59.417 -999 3.276283 31.193698 2.029124
2008-02-13 09:28:45 51°23.301 2°59.436 -999 3.269966 31.127075 2.063949
2008-02-13 09:28:50 51°23.313 2°59.454 -999 3.269966 31.127075 2.063949
2008-02-13 09:28:55 51°23.325 2°59.472 -999 3.276387 31.195679 2.063949
2008-02-13 09:29:00 51°23.337 2°59.49 -999 3.272762 31.156562 2.063949
2008-02-13 09:29:05 51°23.349 2°59.508 -999 3.276594 31.196087 2.063949
2008-02-13 09:29:10 51°23.361 2°59.526 -999 3.278458 31.21486 2.029124
2008-02-13 09:29:15 51°23.373 2°59.544 -999 3.278147 31.211583 2.029124
2008-02-13 09:29:20 51°23.385 2°59.561 -999 3.278147 31.211583 2.029124
2008-02-13 09:29:25 51°23.397 2°59.579 -999 3.277215 31.202641 2.029124
2008-02-13 09:29:30 51°23.409 2°59.597 -999 3.277836 31.209195 1.9943
2008-02-13 09:29:35 51°23.421 2°59.615 -999 3.277008 31.200456 2.029124
2008-02-13 09:29:40 51°23.433 2°59.632 -999 3.272762 31.155674 2.029124
2008-02-13 09:29:45 51°23.446 2°59.65 -999 3.27649 31.194994 2.029124
2008-02-13 09:29:50 51°23.458 2°59.668 -999 3.27649 31.194994 2.029124
2008-02-13 09:29:55 51°23.47 2°59.686 -999 3.27473 31.176425 2.029124
2008-02-13 09:30:00 51°23.482 2°59.704 -999 3.278147 31.214251 1.9943
2008-02-13 09:30:05 51°23.493 2°59.722 -999 3.277526 31.206807 2.029124
2008-02-13 09:30:10 51°23.505 2°59.74 -999 3.274005 31.169668 2.029124
2008-02-13 09:30:15 51°23.517 2°59.758 -999 3.276387 31.194791 1.9943
2008-02-13 09:30:20 51°23.529 2°59.777 -999 3.276387 31.194791 1.9943
2008-02-13 09:30:25 51°23.541 2°59.795 -999 3.27504 31.179702 2.029124
2008-02-13 09:30:30 51°23.553 2°59.813 -999 3.277112 31.201548 1.959476
2008-02-13 09:30:35 51°23.565 2°59.831 -999 3.271934 31.146937 1.9943
2008-02-13 09:30:40 51°23.577 2°59.849 -999 3.27794 31.211177 1.9943
2008-02-13 09:30:45 51°23.589 2°59.868 -999 3.277112 31.201548 1.9943
2008-02-13 09:30:50 51°23.601 2°59.886 -999 3.277112 31.201548 1.9943
2008-02-13 09:30:55 51°23.613 2°59.904 -999 3.274419 31.172261 1.9943
2008-02-13 09:31:00 51°23.625 2°59.922 -999 3.276594 31.195198 1.9943
2008-02-13 09:31:05 51°23.637 2°59.939 -999 3.275248 31.179222 1.9943
2008-02-13 09:31:10 51°23.649 2°59.958 -999 3.277836 31.205639 1.9943
2008-02-13 09:31:15 51°23.662 2°59.976 -999 3.272659 31.150144 1.9943
2008-02-13 09:31:20 51°23.673 2°59.994 -999 3.272659 31.150144 1.9943
2008-02-13 09:31:25 51°23.685 3°0.012 -999 3.274419 31.168709 2.029124
2008-02-13 09:31:30 51°23.697 3°0.031 -999 3.278147 31.207138 1.959476
2008-02-13 09:31:35 51°23.709 3°0.049 -999 3.278354 31.209322 1.9943
2008-02-13 09:31:40 51°23.721 3°0.067 -999 3.276594 31.189866 1.9943
2008-02-13 09:31:45 51°23.734 3°0.083 -999 3.276904 31.193143 1.959476
2008-02-13 09:31:50 51°23.748 3°0.098 -999 3.276904 31.193143 1.959476
2008-02-13 09:31:55 51°23.762 3°0.11 -999 3.277836 31.202083 1.9943
2008-02-13 09:32:00 51°23.777 3°0.12 -999 3.277629 31.199899 1.959476
2008-02-13 09:32:05 51°23.793 3°0.128 -999 3.278354 31.208433 1.924652
2008-02-13 09:32:10 51°23.809 3°0.133 -999 3.277319 31.199289 1.959476
2008-02-13 09:32:15 51°23.825 3°0.136 -999 3.27649 31.192328 1.959476
2008-02-13 09:32:20 51°23.842 3°0.136 -999 3.27649 31.192328 1.959476
2008-02-13 09:32:25 51°23.859 3°0.133 -999 3.277526 31.20414 1.924652
2008-02-13 09:32:30 51°23.875 3°0.128 -999 3.277836 31.209195 1.924652
2008-02-13 09:32:35 51°23.891 3°0.12 -999 3.277733 31.208103 1.924652
2008-02-13 09:32:40 51°23.907 3°0.11 -999 3.27794 31.209398 1.9943
2008-02-13 09:32:45 51°23.923 3°0.097 -999 3.278458 31.213971 1.959476
2008-02-13 09:32:50 51°23.937 3°0.082 -999 3.278458 31.213971 1.959476
2008-02-13 09:32:55 51°23.951 3°0.065 -999 3.277422 31.202159 1.959476
2008-02-13 09:33:00 51°23.963 3°0.045 -999 3.277319 31.200177 1.959476
2008-02-13 09:33:05 51°23.975 3°0.024 -999 3.274005 31.164341 1.889828
2008-02-13 09:33:10 51°23.987 3°0.002 -999 3.278665 31.212599 1.959476
2008-02-13 09:33:15 51°23.999 2°59.981 -999 3.278251 31.20823 1.924652
2008-02-13 09:33:20 51°24.011 2°59.959 -999 3.278251 31.20823 1.924652
2008-02-13 09:33:25 51°24.023 2°59.937 -999 3.278768 31.212802 1.924652
2008-02-13 09:33:30 51°24.035 2°59.914 -999 3.27939 31.218466 1.924652
2008-02-13 09:33:35 51°24.047 2°59.892 -999 3.279493 31.219558 1.924652
2008-02-13 09:33:40 51°24.059 2°59.869 -999 3.281461 31.236753 1.959476
2008-02-13 09:33:45 51°24.071 2°59.846 -999 3.280839 31.227531 1.924652
2008-02-13 09:33:50 51°24.082 2°59.823 -999 3.280839 31.227531 1.924652
2008-02-13 09:33:55 51°24.094 2°59.8 -999 3.281254 31.230121 1.924652
2008-02-13 09:34:00 51°24.106 2°59.777 -999 3.273694 31.149529 1.889828
2008-02-13 09:34:05 51°24.119 2°59.755 -999 3.278147 31.194697 1.855004
2008-02-13 09:34:10 51°24.131 2°59.732 -999 3.281046 31.225269 1.889828
2008-02-13 09:34:15 51°24.142 2°59.709 -999 3.278458 31.196196 1.889828
2008-02-13 09:34:20 51°24.151 2°59.684 -999 3.278458 31.196196 1.889828
2008-02-13 09:34:25 51°24.16 2°59.658 -999 3.277008 31.179137 1.889828
2008-02-13 09:34:30 51°24.168 2°59.631 -999 3.281668 31.228264 1.889828
2008-02-13 09:34:35 51°24.176 2°59.604 -999 3.281461 31.227859 1.855004
2008-02-13 09:34:40 51°24.181 2°59.575 -999 3.279286 31.205819 1.785356
2008-02-13 09:34:45 51°24.187 2°59.547 -999 3.278354 31.198658 1.82018
2008-02-13 09:34:50 51°24.192 2°59.518 -999 3.278354 31.198658 1.82018
2008-02-13 09:34:55 51°24.197 2°59.489 -999 3.281254 31.230121 1.785356
2008-02-13 09:35:00 51°24.201 2°59.459 -999 3.282082 31.237968 1.785356
2008-02-13 09:35:05 51°24.205 2°59.43 -999 3.280425 31.221385 1.785356
2008-02-13 09:35:10 51°24.208 2°59.4 -999 3.273798 31.153282 1.82018
2008-02-13 09:35:15 51°24.211 2°59.37 -999 3.27473 31.163108 1.750532
2008-02-13 09:35:20 51°24.214 2°59.34 -999 3.27473 31.163108 1.750532
2008-02-13 09:35:25 51°24.216 2°59.31 -999 3.277422 31.192384 1.785356
2008-02-13 09:35:30 51°24.219 2°59.279 -999 3.282289 31.241932 1.785356
2008-02-13 09:35:35 51°24.222 2°59.249 -999 3.282496 31.244116 1.785356
2008-02-13 09:35:40 51°24.225 2°59.219 -999 3.283842 31.257424 1.750532
2008-02-13 09:35:45 51°24.228 2°59.189 -999 3.282186 31.23906 1.750532
2008-02-13 09:35:50 51°24.231 2°59.159 -999 3.282186 31.23906 1.750532
2008-02-13 09:35:55 51°24.234 2°59.129 -999 3.281668 31.232711 1.715708
2008-02-13 09:36:00 51°24.238 2°59.099 -999 3.286638 31.284242 1.750532
2008-02-13 09:36:05 51°24.241 2°59.069 -999 3.283946 31.255846 1.750532
2008-02-13 09:36:10 51°24.244 2°59.039 -999 3.282703 31.241852 1.715708
2008-02-13 09:36:15 51°24.247 2°59.009 -999 3.280114 31.212776 1.715708
2008-02-13 09:36:20 51°24.25 2°58.979 -999 3.280114 31.212776 1.715708
2008-02-13 09:36:25 51°24.253 2°58.949 -999 3.287053 31.284157 1.680884
2008-02-13 09:36:30 51°24.256 2°58.918 -999 3.284878 31.259444 1.715708
2008-02-13 09:36:35 51°24.259 2°58.888 -999 3.287156 31.281687 1.680884
2008-02-13 09:36:40 51°24.262 2°58.858 -999 3.288088 31.288843 1.715708
2008-02-13 09:36:45 51°24.264 2°58.828 -999 3.285706 31.26106 1.680884
2008-02-13 09:36:50 51°24.267 2°58.797 -999 3.285706 31.26106 1.680884
2008-02-13 09:36:55 51°24.27 2°58.767 -999 3.286535 31.267124 1.715708
2008-02-13 09:37:00 51°24.273 2°58.737 -999 3.291195 31.313581 1.680884
2008-02-13 09:37:05 51°24.277 2°58.707 -999 3.293266 31.332743 1.715708
2008-02-13 09:37:10 51°24.28 2°58.677 -999 3.293162 31.327194 1.680884
2008-02-13 09:37:15 51°24.283 2°58.647 -999 3.289331 31.283246 1.680884
2008-02-13 09:37:20 51°24.286 2°58.617 -999 3.289331 31.283246 1.680884
2008-02-13 09:37:25 51°24.289 2°58.587 -999 3.291919 31.305188 1.680884
2008-02-13 09:37:30 51°24.292 2°58.557 -999 3.294923 31.335055 1.611236
2008-02-13 09:37:35 51°24.294 2°58.527 -999 3.295751 31.342895 1.576412
2008-02-13 09:37:40 51°24.297 2°58.496 -999 3.294405 31.328707 1.541588
2008-02-13 09:37:45 51°24.3 2°58.466 -999 3.292748 31.311247 1.437116
2008-02-13 09:37:50 51°24.303 2°58.436 -999 3.292748 31.311247 1.437116
2008-02-13 09:37:55 51°24.306 2°58.406 -999 3.294923 31.333273 1.437116
2008-02-13 09:38:00 51°24.309 2°58.376 -999 3.296787 31.352026 1.402292
2008-02-13 09:38:05 51°24.312 2°58.346 -999 3.296994 31.353317 1.402292
2008-02-13 09:38:10 51°24.315 2°58.316 -999 3.300411 31.388442 1.332643
2008-02-13 09:38:15 51°24.319 2°58.286 -999 3.297304 31.353916 1.297819
2008-02-13 09:38:20 51°24.322 2°58.255 -999 3.297304 31.353916 1.297819
2008-02-13 09:38:25 51°24.325 2°58.225 -999 3.298547 31.365228 1.332643
2008-02-13 09:38:30 51°24.328 2°58.195 -999 3.301654 31.397076 1.297819
2008-02-13 09:38:35 51°24.331 2°58.165 -999 3.299272 31.371083 1.228171
2008-02-13 09:38:40 51°24.334 2°58.134 -999 3.300618 31.383485 1.262995
2008-02-13 09:38:45 51°24.337 2°58.104 -999 3.299375 31.369499 1.297819
2008-02-13 09:38:50 51°24.34 2°58.074 -999 3.299375 31.369499 1.297819
2008-02-13 09:38:55 51°24.343 2°58.044 -999 3.299168 31.366425 1.297819
2008-02-13 09:39:00 51°24.346 2°58.014 -999 3.301861 31.393011 1.297819
2008-02-13 09:39:05 51°24.35 2°57.983 -999 3.302586 31.399757 1.297819
2008-02-13 09:39:10 51°24.353 2°57.953 -999 3.300825 31.379423 1.297819
2008-02-13 09:39:15 51°24.356 2°57.923 -999 3.301343 31.383986 1.332643
2008-02-13 09:39:20 51°24.36 2°57.893 -999 3.301343 31.383986 1.332643
2008-02-13 09:39:25 51°24.363 2°57.863 -999 3.305278 31.423664 1.332643
2008-02-13 09:39:30 51°24.366 2°57.833 -999 3.305175 31.42168 1.332643
2008-02-13 09:39:35 51°24.369 2°57.803 -999 3.302689 31.393709 1.332643
2008-02-13 09:39:40 51°24.372 2°57.772 -999 3.306728 31.435367 1.367467
2008-02-13 09:39:45 51°24.375 2°57.742 -999 3.308178 31.450644 1.367467
2008-02-13 09:39:50 51°24.378 2°57.712 -999 3.308178 31.450644 1.367467
2008-02-13 09:39:55 51°24.381 2°57.682 -999 3.306935 31.437549 1.367467
2008-02-13 09:40:00 51°24.385 2°57.651 -999 3.309214 31.460662 1.402292
2008-02-13 09:40:05 51°24.388 2°57.622 -999 3.302171 31.385578 1.402292
2008-02-13 09:40:10 51°24.392 2°57.592 -999 3.307971 31.447568 1.402292
2008-02-13 09:40:15 51°24.395 2°57.561 -999 3.306417 31.4312 1.367467
2008-02-13 09:40:20 51°24.398 2°57.531 -999 3.306417 31.4312 1.367467
2008-02-13 09:40:25 51°24.402 2°57.502 -999 3.310663 31.47594 1.402292
2008-02-13 09:40:30 51°24.406 2°57.472 -999 3.308385 31.451932 1.367467
2008-02-13 09:40:35 51°24.41 2°57.442 -999 3.309317 31.459965 1.367467
2008-02-13 09:40:40 51°24.415 2°57.414 -999 3.307764 31.443598 1.402292
2008-02-13 09:40:45 51°24.422 2°57.386 -999 3.308489 31.451236 1.402292
2008-02-13 09:40:50 51°24.428 2°57.358 -999 3.308489 31.451236 1.402292
2008-02-13 09:40:55 51°24.435 2°57.331 -999 3.310767 31.474348 1.402292
2008-02-13 09:41:00 51°24.444 2°57.305 -999 3.311906 31.485457 1.367467
2008-02-13 09:41:05 51°24.452 2°57.278 -999 3.308696 31.449843 1.367467
2008-02-13 09:41:10 51°24.461 2°57.252 -999 3.309628 31.456981 1.402292
2008-02-13 09:41:15 51°24.469 2°57.225 -999 3.309006 31.448648 1.367467
2008-02-13 09:41:20 51°24.479 2°57.199 -999 3.309006 31.448648 1.367467
2008-02-13 09:41:25 51°24.487 2°57.173 -999 3.317291 31.534145 1.332643
2008-02-13 09:41:30 51°24.497 2°57.147 -999 3.320191 31.561116 1.332643
2008-02-13 09:41:35 51°24.506 2°57.121 -999 3.317395 31.529862 1.297819
2008-02-13 09:41:40 51°24.515 2°57.095 -999 3.322159 31.578264 1.297819
2008-02-13 09:41:45 51°24.524 2°57.068 -999 3.318948 31.543541 1.262995
2008-02-13 09:41:50 51°24.533 2°57.042 -999 3.318948 31.543541 1.262995
2008-02-13 09:41:55 51°24.542 2°57.015 -999 3.322366 31.578652 1.262995
2008-02-13 09:42:00 51°24.551 2°56.989 -999 3.320502 31.558115 1.228171
2008-02-13 09:42:05 51°24.56 2°56.962 -999 3.321744 31.570312 1.193347
2008-02-13 09:42:10 51°24.568 2°56.935 -999 3.327648 31.62982 1.193347
2008-02-13 09:42:15 51°24.577 2°56.909 -999 3.327751 31.630013 1.123699
2008-02-13 09:42:20 51°24.586 2°56.882 -999 3.327751 31.630013 1.123699
2008-02-13 09:42:25 51°24.594 2°56.855 -999 3.328787 31.639129 1.123699
2008-02-13 09:42:30 51°24.603 2°56.828 -999 3.331687 31.667889 1.123699
2008-02-13 09:42:35 51°24.612 2°56.802 -999 3.324748 31.592984 1.123699
2008-02-13 09:42:40 51°24.621 2°56.775 -999 3.331583 31.662303 1.123699
2008-02-13 09:42:45 51°24.63 2°56.748 -999 3.331065 31.655049 1.054051